Time,TemperatureF,DewpointF,PressureIn,WindDirection,WindDirectionDegrees,WindSpeedMPH,WindSpeedGustMPH,Humidity,HourlyPrecipIn,Conditions,Clouds,dailyrainin,SolarRadiationWatts/m^2,SoftwareType,DateUTC
2013-01-26 00:00:00,39.9,39.1,29.95,South,178,1.0,1.0,97,0.00,,---,0.18,0.00,VWS V14.01,2013-01-26 08:00:00,
2013-01-26 00:02:00,40.0,39.2,29.95,South,175,2.0,3.0,97,0.00,,---,0.00,0.00,VWS V14.01,2013-01-26 08:02:00,
2013-01-26 00:05:00,40.0,39.2,29.95,South,171,0.0,3.0,97,0.00,,---,0.00,0.00,VWS V14.01,2013-01-26 08:05:00,
2013-01-26 00:07:00,40.2,39.4,29.94,South,180,0.0,1.0,97,0.00,,---,0.00,0.00,VWS V14.01,2013-01-26 08:07:00,
2013-01-26 00:10:00,40.2,39.4,29.94,South,179,0.0,1.0,97,0.00,,---,0.00,0.00,VWS V14.01,2013-01-26 08:10:00,
2013-01-26 00:12:00,40.2,39.4,29.94,South,182,0.0,2.0,97,0.00,,---,0.00,0.00,VWS V14.01,2013-01-26 08:12:00,
2013-01-26 00:15:00,40.2,39.4,29.94,South,180,0.0,2.0,97,0.00,,---,0.00,0.00,VWS V14.01,2013-01-26 08:15:00,
2013-01-26 00:17:00,40.3,39.5,29.94,South,183,0.0,1.0,97,0.00,,---,0.00,0.00,VWS V14.01,2013-01-26 08:17:00,
2013-01-26 00:20:00,40.3,39.5,29.94,South,181,0.0,1.0,97,0.00,,---,0.00,0.00,VWS V14.01,2013-01-26 08:20:00,
2013-01-26 00:22:00,40.4,39.6,29.94,South,182,0.0,2.0,97,0.00,,---,0.00,0.00,VWS V14.01,2013-01-26 08:22:00,
2013-01-26 00:25:00,40.5,39.7,29.94,South,180,0.0,2.0,97,0.00,,---,0.00,0.00,VWS V14.01,2013-01-26 08:25:00,
2013-01-26 00:27:00,40.6,39.8,29.94,SSE,164,0.0,2.0,97,0.00,,---,0.00,0.00,VWS V14.01,2013-01-26 08:27:00,
2013-01-26 00:30:00,40.6,39.8,29.94,SSE,165,0.0,2.0,97,0.00,,---,0.00,0.00,VWS V14.01,2013-01-26 08:30:00,
2013-01-26 00:32:00,40.7,39.7,29.93,SSE,163,0.0,1.0,96,0.00,,---,0.00,0.00,VWS V14.01,2013-01-26 08:32:00,
2013-01-26 00:35:00,40.7,39.7,29.93,SSE,164,0.0,1.0,96,0.00,,---,0.00,0.00,VWS V14.01,2013-01-26 08:35:00,
2013-01-26 00:37:00,40.7,39.7,29.93,SSE,164,0.0,0.0,96,0.00,,---,0.00,0.00,VWS V14.01,2013-01-26 08:37:00,
2013-01-26 00:40:00,40.6,39.5,29.93,SSE,161,0.0,0.0,96,0.00,,---,0.00,0.00,VWS V14.01,2013-01-26 08:40:00,
2013-01-26 00:42:00,40.6,39.3,29.94,SSE,165,0.0,0.0,95,0.00,,---,0.00,0.00,VWS V14.01,2013-01-26 08:42:00,
2013-01-26 00:45:00,40.6,39.3,29.94,SSE,162,0.0,0.0,95,0.00,,---,0.00,0.00,VWS V14.01,2013-01-26 08:45:00,
2013-01-26 00:47:00,40.5,39.2,29.94,SSE,162,0.0,0.0,95,0.00,,---,0.00,0.00,VWS V14.01,2013-01-26 08:47:00,
2013-01-26 00:50:00,40.4,39.1,29.94,SSE,162,0.0,0.0,95,0.00,,---,0.00,0.00,VWS V14.01,2013-01-26 08:50:00,
2013-01-26 00:52:00,40.5,39.2,29.94,SSE,163,0.0,1.0,95,0.00,,---,0.00,0.00,VWS V14.01,2013-01-26 08:52:00,
2013-01-26 00:55:00,40.5,39.5,29.94,SSE,163,1.0,1.0,96,0.00,,---,0.00,0.00,VWS V14.01,2013-01-26 08:55:00,
2013-01-26 00:57:00,40.6,39.5,29.94,SSE,165,1.0,2.0,96,0.00,,---,0.00,0.00,VWS V14.01,2013-01-26 08:57:00,
2013-01-26 01:00:00,40.7,39.7,29.94,SSE,163,1.0,2.0,96,0.00,,---,0.00,0.00,VWS V14.01,2013-01-26 09:00:00,
2013-01-26 01:02:00,40.9,39.8,29.94,South,170,1.0,2.0,96,0.00,,---,0.00,0.00,VWS V14.01,2013-01-26 09:02:00,
2013-01-26 01:05:00,40.9,39.8,29.94,South,169,0.0,2.0,96,0.00,,---,0.00,0.00,VWS V14.01,2013-01-26 09:05:00,
2013-01-26 01:07:00,41.0,39.7,29.93,SSE,158,2.0,2.0,95,0.00,,---,0.00,0.00,VWS V14.01,2013-01-26 09:07:00,
2013-01-26 01:10:00,41.1,39.8,29.93,SSW,198,3.0,3.0,95,0.00,,---,0.00,0.00,VWS V14.01,2013-01-26 09:10:00,
2013-01-26 01:12:00,41.3,40.0,29.93,South,182,0.0,3.0,95,0.00,,---,0.00,0.00,VWS V14.01,2013-01-26 09:12:00,
2013-01-26 01:15:00,41.3,40.0,29.93,South,182,1.0,3.0,95,0.00,,---,0.00,0.00,VWS V14.01,2013-01-26 09:15:00,
2013-01-26 01:17:00,41.5,39.9,29.93,SSE,161,1.0,3.0,94,0.00,,---,0.00,0.00,VWS V14.01,2013-01-26 09:17:00,
2013-01-26 01:20:00,41.5,39.9,29.93,SSE,162,1.0,3.0,94,0.00,,---,0.00,0.00,VWS V14.01,2013-01-26 09:20:00,
2013-01-26 01:22:00,41.7,40.1,29.93,SSE,161,0.0,2.0,94,0.00,,---,0.00,0.00,VWS V14.01,2013-01-26 09:22:00,
2013-01-26 01:25:00,41.8,40.2,29.93,SSE,162,0.0,2.0,94,0.00,,---,0.00,0.00,VWS V14.01,2013-01-26 09:25:00,
2013-01-26 01:27:00,41.9,40.0,29.93,SSE,162,0.0,0.0,93,0.00,,---,0.00,0.00,VWS V14.01,2013-01-26 09:27:00,
2013-01-26 01:30:00,41.9,40.0,29.93,SSE,162,0.0,0.0,93,0.00,,---,0.00,0.00,VWS V14.01,2013-01-26 09:30:00,
2013-01-26 01:32:00,41.9,40.0,29.93,SSE,163,0.0,1.0,93,0.00,,---,0.00,0.00,VWS V14.01,2013-01-26 09:32:00,
2013-01-26 01:35:00,41.9,40.0,29.93,SSE,161,0.0,1.0,93,0.00,,---,0.00,0.00,VWS V14.01,2013-01-26 09:35:00,
2013-01-26 01:37:00,41.9,40.0,29.93,SSE,157,2.0,2.0,93,0.00,,---,0.00,0.00,VWS V14.01,2013-01-26 09:37:00,
2013-01-26 01:40:00,41.9,40.0,29.93,SSE,159,1.0,3.0,93,0.00,,---,0.00,0.00,VWS V14.01,2013-01-26 09:40:00,
2013-01-26 01:42:00,41.9,40.0,29.93,SSE,159,1.0,2.0,93,0.00,,---,0.00,0.00,VWS V14.01,2013-01-26 09:42:00,
2013-01-26 01:45:00,41.9,40.0,29.93,SSE,160,0.0,2.0,93,0.00,,---,0.00,0.00,VWS V14.01,2013-01-26 09:45:00,
2013-01-26 01:47:00,41.9,40.0,29.93,SE,144,1.0,2.0,93,0.00,,---,0.00,0.00,VWS V14.01,2013-01-26 09:47:00,
2013-01-26 01:50:00,41.9,40.0,29.93,SE,146,1.0,2.0,93,0.00,,---,0.00,0.00,VWS V14.01,2013-01-26 09:50:00,
2013-01-26 01:52:00,41.8,39.9,29.92,SE,140,0.0,1.0,93,0.00,,---,0.00,0.00,VWS V14.01,2013-01-26 09:52:00,
2013-01-26 01:55:00,41.8,39.9,29.92,SE,140,0.0,1.0,93,0.00,,---,0.00,0.00,VWS V14.01,2013-01-26 09:55:00,
2013-01-26 01:57:00,41.7,39.8,29.92,SE,140,0.0,1.0,93,0.00,,---,0.00,0.00,VWS V14.01,2013-01-26 09:57:00,
2013-01-26 02:00:00,41.6,39.7,29.92,SE,140,1.0,1.0,93,0.00,,---,0.00,0.00,VWS V14.01,2013-01-26 10:00:00,
2013-01-26 02:02:00,41.5,39.9,29.93,ESE,108,0.0,2.0,94,0.00,,---,0.00,0.00,VWS V14.01,2013-01-26 10:02:00,
2013-01-26 02:05:00,41.5,39.9,29.93,ESE,107,1.0,2.0,94,0.00,,---,0.00,0.00,VWS V14.01,2013-01-26 10:05:00,
2013-01-26 02:07:00,41.3,39.7,29.93,ESE,108,0.0,2.0,94,0.00,,---,0.00,0.00,VWS V14.01,2013-01-26 10:07:00,
2013-01-26 02:10:00,41.3,39.7,29.93,ESE,107,0.0,2.0,94,0.00,,---,0.00,0.00,VWS V14.01,2013-01-26 10:10:00,
2013-01-26 02:12:00,41.2,39.6,29.93,ESE,109,0.0,2.0,94,0.00,,---,0.00,0.00,VWS V14.01,2013-01-26 10:12:00,
2013-01-26 02:15:00,41.2,39.9,29.93,ESE,109,0.0,2.0,95,0.00,,---,0.00,0.00,VWS V14.01,2013-01-26 10:15:00,
2013-01-26 02:17:00,41.1,39.8,29.93,ESE,107,0.0,2.0,95,0.00,,---,0.00,0.00,VWS V14.01,2013-01-26 10:17:00,
2013-01-26 02:20:00,41.1,39.8,29.93,ESE,108,0.0,2.0,95,0.00,,---,0.00,0.00,VWS V14.01,2013-01-26 10:20:00,
2013-01-26 02:22:00,41.0,39.7,29.93,ESE,109,1.0,2.0,95,0.00,,---,0.00,0.00,VWS V14.01,2013-01-26 10:22:00,
2013-01-26 02:25:00,41.0,39.7,29.93,ESE,109,0.0,2.0,95,0.00,,---,0.00,0.00,VWS V14.01,2013-01-26 10:25:00,
2013-01-26 02:27:00,41.0,39.7,29.93,ESE,109,1.0,2.0,95,0.00,,---,0.00,0.00,VWS V14.01,2013-01-26 10:27:00,
2013-01-26 02:30:00,41.0,39.7,29.93,ESE,107,1.0,2.0,95,0.00,,---,0.00,0.00,VWS V14.01,2013-01-26 10:30:00,
2013-01-26 02:32:00,40.9,39.6,29.93,ESE,103,1.0,2.0,95,0.00,,---,0.00,0.00,VWS V14.01,2013-01-26 10:32:00,
2013-01-26 02:35:00,40.9,39.6,29.93,ESE,103,0.0,2.0,95,0.00,,---,0.00,0.00,VWS V14.01,2013-01-26 10:35:00,
2013-01-26 02:37:00,40.8,39.5,29.92,ESE,104,1.0,1.0,95,0.00,,---,0.00,0.00,VWS V14.01,2013-01-26 10:37:00,
2013-01-26 02:40:00,40.8,39.5,29.92,East,101,1.0,3.0,95,0.00,,---,0.00,0.00,VWS V14.01,2013-01-26 10:40:00,
2013-01-26 02:42:00,40.7,39.7,29.92,East,98,0.0,1.0,96,0.00,,---,0.00,0.00,VWS V14.01,2013-01-26 10:42:00,
2013-01-26 02:45:00,40.7,39.7,29.92,East,98,0.0,1.0,96,0.00,,---,0.00,0.00,VWS V14.01,2013-01-26 10:45:00,
2013-01-26 02:47:00,40.7,39.7,29.92,East,98,1.0,1.0,96,0.00,,---,0.00,0.00,VWS V14.01,2013-01-26 10:47:00,
2013-01-26 02:50:00,40.7,39.7,29.92,East,98,1.0,2.0,96,0.00,,---,0.00,0.00,VWS V14.01,2013-01-26 10:50:00,
2013-01-26 02:52:00,40.6,39.5,29.92,East,99,0.0,1.0,96,0.00,,---,0.00,0.00,VWS V14.01,2013-01-26 10:52:00,
2013-01-26 02:55:00,40.6,39.5,29.92,East,99,1.0,1.0,96,0.00,,---,0.00,0.00,VWS V14.01,2013-01-26 10:55:00,
2013-01-26 02:57:00,40.5,39.5,29.92,East,99,0.0,1.0,96,0.00,,---,0.00,0.00,VWS V14.01,2013-01-26 10:57:00,
2013-01-26 03:00:00,40.5,39.5,29.92,East,98,0.0,1.0,96,0.00,,---,0.00,0.00,VWS V14.01,2013-01-26 11:00:00,
2013-01-26 03:02:00,40.5,39.2,29.92,East,97,0.0,0.0,95,0.00,,---,0.00,0.00,VWS V14.01,2013-01-26 11:02:00,
2013-01-26 03:05:00,40.5,39.2,29.92,East,98,1.0,1.0,95,0.00,,---,0.00,0.00,VWS V14.01,2013-01-26 11:05:00,
2013-01-26 03:07:00,40.3,39.0,29.92,East,99,0.0,1.0,95,0.00,,---,0.00,0.00,VWS V14.01,2013-01-26 11:07:00,
2013-01-26 03:10:00,40.3,39.0,29.92,East,99,0.0,1.0,95,0.00,,---,0.00,0.00,VWS V14.01,2013-01-26 11:10:00,
2013-01-26 03:12:00,40.2,39.2,29.92,East,97,0.0,0.0,96,0.00,,---,0.00,0.00,VWS V14.01,2013-01-26 11:12:00,
2013-01-26 03:15:00,40.2,39.2,29.92,East,99,0.0,0.0,96,0.00,,---,0.00,0.00,VWS V14.01,2013-01-26 11:15:00,
2013-01-26 03:17:00,40.1,39.0,29.92,East,98,0.0,0.0,96,0.00,,---,0.00,0.00,VWS V14.01,2013-01-26 11:17:00,
2013-01-26 03:20:00,40.1,39.0,29.92,East,99,0.0,0.0,96,0.00,,---,0.00,0.00,VWS V14.01,2013-01-26 11:20:00,
2013-01-26 03:22:00,40.1,39.0,29.91,East,97,0.0,0.0,96,0.00,,---,0.00,0.00,VWS V14.01,2013-01-26 11:22:00,
2013-01-26 03:25:00,40.0,39.0,29.91,East,98,0.0,0.0,96,0.00,,---,0.00,0.00,VWS V14.01,2013-01-26 11:25:00,
2013-01-26 03:27:00,40.0,39.0,29.91,East,98,0.0,0.0,96,0.00,,---,0.00,0.00,VWS V14.01,2013-01-26 11:27:00,
2013-01-26 03:30:00,40.0,39.0,29.91,East,98,0.0,0.0,96,0.00,,---,0.00,0.00,VWS V14.01,2013-01-26 11:30:00,
2013-01-26 03:32:00,39.9,38.8,29.91,ENE,69,0.0,1.0,96,0.00,,---,0.00,0.00,VWS V14.01,2013-01-26 11:32:00,
2013-01-26 03:35:00,40.0,39.0,29.91,ENE,70,0.0,1.0,96,0.00,,---,0.00,0.00,VWS V14.01,2013-01-26 11:35:00,
2013-01-26 03:37:00,39.8,38.8,29.91,ENE,69,0.0,1.0,96,0.00,,---,0.00,0.00,VWS V14.01,2013-01-26 11:37:00,
2013-01-26 03:40:00,39.8,38.8,29.91,ENE,70,0.0,1.0,96,0.00,,---,0.00,0.00,VWS V14.01,2013-01-26 11:40:00,
2013-01-26 03:42:00,39.8,38.8,29.91,ENE,68,0.0,0.0,96,0.00,,---,0.00,0.00,VWS V14.01,2013-01-26 11:42:00,
2013-01-26 03:45:00,39.8,38.8,29.91,ENE,69,0.0,0.0,96,0.00,,---,0.00,0.00,VWS V14.01,2013-01-26 11:45:00,
2013-01-26 03:47:00,39.7,38.7,29.91,ENE,69,0.0,0.0,96,0.00,,---,0.00,0.00,VWS V14.01,2013-01-26 11:47:00,
2013-01-26 03:50:00,39.7,38.7,29.91,ENE,70,0.0,0.0,96,0.00,,---,0.00,0.00,VWS V14.01,2013-01-26 11:50:00,
2013-01-26 03:52:00,39.6,38.6,29.91,ENE,69,0.0,1.0,96,0.00,,---,0.00,0.00,VWS V14.01,2013-01-26 11:52:00,
2013-01-26 03:55:00,39.6,38.6,29.91,ENE,69,0.0,1.0,96,0.00,,---,0.00,0.00,VWS V14.01,2013-01-26 11:55:00,
2013-01-26 03:57:00,39.5,38.5,29.91,ENE,69,0.0,0.0,96,0.00,,---,0.00,0.00,VWS V14.01,2013-01-26 11:57:00,
2013-01-26 04:00:00,39.5,38.5,29.91,ENE,70,0.0,0.0,96,0.00,,---,0.00,0.00,VWS V14.01,2013-01-26 12:00:00,
2013-01-26 04:02:00,39.4,38.4,29.91,ENE,69,0.0,0.0,96,0.00,,---,0.00,0.00,VWS V14.01,2013-01-26 12:02:00,
2013-01-26 04:05:00,39.4,38.4,29.91,ENE,69,0.0,0.0,96,0.00,,---,0.00,0.00,VWS V14.01,2013-01-26 12:05:00,
2013-01-26 04:07:00,39.3,38.3,29.91,ENE,69,0.0,0.0,96,0.00,,---,0.00,0.00,VWS V14.01,2013-01-26 12:07:00,
2013-01-26 04:10:00,39.3,38.3,29.91,ENE,69,0.0,0.0,96,0.00,,---,0.00,0.00,VWS V14.01,2013-01-26 12:10:00,
2013-01-26 04:12:00,39.3,38.3,29.92,SSE,163,0.0,2.0,96,0.00,,---,0.00,0.00,VWS V14.01,2013-01-26 12:12:00,
2013-01-26 04:15:00,39.2,38.2,29.92,SSE,164,0.0,2.0,96,0.00,,---,0.00,0.00,VWS V14.01,2013-01-26 12:15:00,
2013-01-26 04:17:00,39.1,38.1,29.92,East,84,0.0,2.0,96,0.00,,---,0.00,0.00,VWS V14.01,2013-01-26 12:17:00,
2013-01-26 04:20:00,39.1,38.1,29.92,East,84,0.0,2.0,96,0.00,,---,0.00,0.00,VWS V14.01,2013-01-26 12:20:00,
2013-01-26 04:22:00,39.0,38.0,29.92,SW,230,3.0,4.0,96,0.00,,---,0.00,0.00,VWS V14.01,2013-01-26 12:22:00,
2013-01-26 04:25:00,39.0,38.0,29.92,SW,230,1.0,4.0,96,0.00,,---,0.00,0.00,VWS V14.01,2013-01-26 12:25:00,
2013-01-26 04:27:00,38.9,37.9,29.92,SW,221,3.0,6.0,96,0.00,,---,0.00,0.00,VWS V14.01,2013-01-26 12:27:00,
2013-01-26 04:30:00,38.9,37.9,29.92,WSW,250,3.0,6.0,96,0.00,,---,0.00,0.00,VWS V14.01,2013-01-26 12:30:00,
2013-01-26 04:32:00,38.9,37.9,29.92,SSE,160,0.0,4.0,96,0.01,,---,0.01,0.00,VWS V14.01,2013-01-26 12:32:00,
2013-01-26 04:35:00,38.9,37.9,29.92,SSE,161,0.0,4.0,96,0.01,,---,0.01,0.00,VWS V14.01,2013-01-26 12:35:00,
2013-01-26 04:37:00,38.9,37.9,29.92,SSE,161,0.0,0.0,96,0.01,,---,0.01,0.00,VWS V14.01,2013-01-26 12:37:00,
2013-01-26 04:40:00,38.9,37.9,29.92,SSE,161,0.0,0.0,96,0.01,,---,0.01,0.00,VWS V14.01,2013-01-26 12:40:00,
2013-01-26 04:42:00,38.9,38.1,29.91,SSE,159,0.0,0.0,97,0.01,,---,0.01,0.00,VWS V14.01,2013-01-26 12:42:00,
2013-01-26 04:45:00,38.9,38.1,29.91,SSE,162,0.0,0.0,97,0.01,,---,0.01,0.00,VWS V14.01,2013-01-26 12:45:00,
2013-01-26 04:47:00,38.9,38.1,29.91,SSE,159,0.0,0.0,97,0.02,,---,0.02,0.00,VWS V14.01,2013-01-26 12:47:00,
2013-01-26 04:50:00,38.9,38.1,29.91,SSE,160,0.0,0.0,97,0.02,,---,0.02,0.00,VWS V14.01,2013-01-26 12:50:00,
2013-01-26 04:52:00,38.9,38.1,29.92,SSE,159,0.0,0.0,97,0.02,,---,0.02,0.00,VWS V14.01,2013-01-26 12:52:00,
2013-01-26 04:55:00,38.9,38.1,29.91,SSE,158,0.0,0.0,97,0.02,,---,0.02,0.00,VWS V14.01,2013-01-26 12:55:00,
2013-01-26 04:57:00,38.9,38.1,29.91,SSE,160,0.0,0.0,97,0.02,,---,0.02,0.00,VWS V14.01,2013-01-26 12:57:00,
2013-01-26 05:00:00,38.9,38.1,29.91,SSE,158,0.0,0.0,97,0.02,,---,0.02,0.00,VWS V14.01,2013-01-26 13:00:00,
2013-01-26 05:02:00,38.9,38.1,29.91,SSE,158,0.0,0.0,97,0.03,,---,0.03,0.00,VWS V14.01,2013-01-26 13:02:00,
2013-01-26 05:05:00,38.9,38.1,29.91,SSE,158,0.0,0.0,97,0.03,,---,0.03,0.00,VWS V14.01,2013-01-26 13:05:00,
2013-01-26 05:07:00,39.0,38.2,29.91,SSE,157,0.0,0.0,97,0.03,,---,0.03,0.00,VWS V14.01,2013-01-26 13:07:00,
2013-01-26 05:10:00,39.0,38.2,29.91,SSE,155,2.0,2.0,97,0.03,,---,0.03,0.00,VWS V14.01,2013-01-26 13:10:00,
2013-01-26 05:12:00,39.0,38.2,29.91,ENE,75,0.0,2.0,97,0.03,,---,0.03,0.00,VWS V14.01,2013-01-26 13:12:00,
2013-01-26 05:15:00,39.0,38.2,29.91,ENE,75,0.0,2.0,97,0.03,,---,0.03,0.00,VWS V14.01,2013-01-26 13:15:00,
2013-01-26 05:17:00,39.1,38.3,29.91,ENE,74,0.0,2.0,97,0.04,,---,0.04,0.00,VWS V14.01,2013-01-26 13:17:00,
2013-01-26 05:20:00,39.1,38.3,29.91,ENE,76,0.0,2.0,97,0.04,,---,0.04,0.00,VWS V14.01,2013-01-26 13:20:00,
2013-01-26 05:22:00,39.1,38.3,29.91,East,80,1.0,2.0,97,0.04,,---,0.04,0.00,VWS V14.01,2013-01-26 13:22:00,
2013-01-26 05:25:00,39.1,38.3,29.91,East,80,0.0,2.0,97,0.04,,---,0.04,0.00,VWS V14.01,2013-01-26 13:25:00,
2013-01-26 05:27:00,39.2,38.4,29.90,East,84,0.0,1.0,97,0.04,,---,0.04,0.00,VWS V14.01,2013-01-26 13:27:00,
2013-01-26 05:30:00,39.1,38.3,29.91,East,84,0.0,1.0,97,0.04,,---,0.04,0.00,VWS V14.01,2013-01-26 13:30:00,
2013-01-26 05:32:00,39.2,38.4,29.90,East,85,0.0,1.0,97,0.05,,---,0.05,0.00,VWS V14.01,2013-01-26 13:32:00,
2013-01-26 05:35:00,39.2,38.4,29.90,East,84,0.0,1.0,97,0.05,,---,0.05,0.00,VWS V14.01,2013-01-26 13:35:00,
2013-01-26 05:37:00,39.2,38.4,29.90,East,84,0.0,0.0,97,0.04,,---,0.05,0.00,VWS V14.01,2013-01-26 13:37:00,
2013-01-26 05:40:00,39.2,38.4,29.90,East,84,0.0,0.0,97,0.04,,---,0.05,0.00,VWS V14.01,2013-01-26 13:40:00,
2013-01-26 05:42:00,39.2,38.7,29.91,East,84,0.0,1.0,98,0.04,,---,0.05,0.00,VWS V14.01,2013-01-26 13:42:00,
2013-01-26 05:45:00,39.2,38.7,29.91,East,84,0.0,1.0,98,0.04,,---,0.05,0.00,VWS V14.01,2013-01-26 13:45:00,
2013-01-26 05:47:00,39.3,38.8,29.90,East,94,1.0,2.0,98,0.04,,---,0.05,0.00,VWS V14.01,2013-01-26 13:47:00,
2013-01-26 05:50:00,39.3,38.8,29.90,East,94,0.0,2.0,98,0.04,,---,0.05,0.00,VWS V14.01,2013-01-26 13:50:00,
2013-01-26 05:52:00,39.4,38.9,29.90,East,96,0.0,1.0,98,0.03,,---,0.05,0.00,VWS V14.01,2013-01-26 13:52:00,
2013-01-26 05:55:00,39.3,38.8,29.90,East,98,0.0,1.0,98,0.03,,---,0.05,0.00,VWS V14.01,2013-01-26 13:55:00,
2013-01-26 05:57:00,39.4,38.6,29.91,East,96,0.0,1.0,97,0.03,,---,0.05,0.00,VWS V14.01,2013-01-26 13:57:00,
2013-01-26 06:00:00,39.4,38.6,29.91,East,96,0.0,1.0,97,0.03,,---,0.05,0.00,VWS V14.01,2013-01-26 14:00:00,
2013-01-26 06:02:00,39.4,38.6,29.91,East,96,0.0,1.0,97,0.03,,---,0.05,0.00,VWS V14.01,2013-01-26 14:02:00,
2013-01-26 06:05:00,39.4,38.6,29.91,East,96,0.0,1.0,97,0.03,,---,0.05,0.00,VWS V14.01,2013-01-26 14:05:00,
2013-01-26 06:07:00,39.4,38.6,29.91,East,97,0.0,0.0,97,0.03,,---,0.06,0.00,VWS V14.01,2013-01-26 14:07:00,
2013-01-26 06:10:00,39.4,38.6,29.91,East,96,0.0,0.0,97,0.03,,---,0.06,0.00,VWS V14.01,2013-01-26 14:10:00,
2013-01-26 06:12:00,39.4,38.6,29.91,East,98,0.0,0.0,97,0.03,,---,0.06,0.00,VWS V14.01,2013-01-26 14:12:00,
2013-01-26 06:15:00,39.4,38.6,29.91,East,97,0.0,0.0,97,0.03,,---,0.06,0.00,VWS V14.01,2013-01-26 14:15:00,
2013-01-26 06:17:00,39.3,38.5,29.91,East,96,0.0,0.0,97,0.03,,---,0.06,0.00,VWS V14.01,2013-01-26 14:17:00,
2013-01-26 06:20:00,39.3,38.5,29.91,East,96,0.0,0.0,97,0.03,,---,0.06,0.00,VWS V14.01,2013-01-26 14:20:00,
2013-01-26 06:22:00,39.3,38.5,29.91,East,98,0.0,0.0,97,0.02,,---,0.06,0.00,VWS V14.01,2013-01-26 14:22:00,
2013-01-26 06:25:00,39.3,38.5,29.91,East,98,0.0,0.0,97,0.02,,---,0.06,0.00,VWS V14.01,2013-01-26 14:25:00,
2013-01-26 06:27:00,39.2,38.4,29.91,East,98,0.0,0.0,97,0.03,,---,0.07,0.00,VWS V14.01,2013-01-26 14:27:00,
2013-01-26 06:30:00,39.2,38.4,29.91,East,96,0.0,0.0,97,0.03,,---,0.07,0.00,VWS V14.01,2013-01-26 14:30:00,
2013-01-26 06:32:00,39.2,38.4,29.91,East,98,0.0,2.0,97,0.03,,---,0.07,0.00,VWS V14.01,2013-01-26 14:32:00,
2013-01-26 06:35:00,39.2,38.4,29.91,East,96,0.0,2.0,97,0.03,,---,0.07,0.00,VWS V14.01,2013-01-26 14:35:00,
2013-01-26 06:37:00,39.2,38.4,29.91,East,96,0.0,0.0,97,0.02,,---,0.07,0.00,VWS V14.01,2013-01-26 14:37:00,
2013-01-26 06:40:00,39.2,38.4,29.91,East,98,0.0,0.0,97,0.02,,---,0.07,0.00,VWS V14.01,2013-01-26 14:40:00,
2013-01-26 06:42:00,39.2,38.7,29.91,East,98,0.0,0.0,98,0.02,,---,0.07,0.00,VWS V14.01,2013-01-26 14:42:00,
2013-01-26 06:45:00,39.2,38.7,29.91,East,97,0.0,0.0,98,0.02,,---,0.07,0.00,VWS V14.01,2013-01-26 14:45:00,
2013-01-26 06:47:00,39.2,38.7,29.91,East,99,0.0,2.0,98,0.02,,---,0.07,0.00,VWS V14.01,2013-01-26 14:47:00,
2013-01-26 06:50:00,39.2,38.7,29.91,East,98,0.0,2.0,98,0.02,,---,0.07,0.00,VWS V14.01,2013-01-26 14:50:00,
2013-01-26 06:52:00,39.3,38.8,29.91,East,101,0.0,1.0,98,0.02,,---,0.07,0.00,VWS V14.01,2013-01-26 14:52:00,
2013-01-26 06:55:00,39.2,38.7,29.91,East,101,0.0,1.0,98,0.02,,---,0.07,0.00,VWS V14.01,2013-01-26 14:55:00,
2013-01-26 06:57:00,39.3,38.8,29.91,East,99,0.0,0.0,98,0.02,,---,0.07,0.00,VWS V14.01,2013-01-26 14:57:00,
2013-01-26 07:00:00,39.2,38.7,29.91,East,98,0.0,0.0,98,0.02,,---,0.07,0.00,VWS V14.01,2013-01-26 15:00:00,
2013-01-26 07:02:00,39.3,38.8,29.91,East,98,0.0,1.0,98,0.02,,---,0.07,0.00,VWS V14.01,2013-01-26 15:02:00,
2013-01-26 07:05:00,39.3,38.8,29.91,East,101,0.0,1.0,98,0.02,,---,0.07,0.00,VWS V14.01,2013-01-26 15:05:00,
2013-01-26 07:07:00,39.3,38.8,29.91,East,98,0.0,1.0,98,0.02,,---,0.07,0.00,VWS V14.01,2013-01-26 15:07:00,
2013-01-26 07:10:00,39.3,38.8,29.91,East,100,0.0,1.0,98,0.02,,---,0.07,0.00,VWS V14.01,2013-01-26 15:10:00,
2013-01-26 07:12:00,39.3,38.8,29.91,East,101,0.0,1.0,98,0.01,,---,0.07,0.00,VWS V14.01,2013-01-26 15:12:00,
2013-01-26 07:15:00,39.3,38.8,29.91,East,100,0.0,1.0,98,0.01,,---,0.07,0.00,VWS V14.01,2013-01-26 15:15:00,
2013-01-26 07:17:00,39.2,38.7,29.91,East,98,0.0,0.0,98,0.01,,---,0.07,0.00,VWS V14.01,2013-01-26 15:17:00,
2013-01-26 07:20:00,39.2,38.7,29.91,East,99,0.0,0.0,98,0.01,,---,0.07,0.00,VWS V14.01,2013-01-26 15:20:00,
2013-01-26 07:22:00,39.1,38.6,29.91,East,98,0.0,0.0,98,0.01,,---,0.07,0.00,VWS V14.01,2013-01-26 15:22:00,
2013-01-26 07:25:00,39.1,38.6,29.91,East,100,0.0,0.0,98,0.01,,---,0.07,0.00,VWS V14.01,2013-01-26 15:25:00,
2013-01-26 07:27:00,39.1,38.6,29.91,East,98,0.0,0.0,98,0.01,,---,0.07,0.00,VWS V14.01,2013-01-26 15:27:00,
2013-01-26 07:30:00,39.1,38.6,29.91,East,98,0.0,0.0,98,0.01,,---,0.07,0.00,VWS V14.01,2013-01-26 15:30:00,
2013-01-26 07:32:00,39.1,38.6,29.91,East,101,0.0,0.0,98,0.00,,---,0.07,0.00,VWS V14.01,2013-01-26 15:32:00,
2013-01-26 07:35:00,39.1,38.6,29.91,East,98,0.0,0.0,98,0.00,,---,0.07,0.00,VWS V14.01,2013-01-26 15:35:00,
2013-01-26 07:37:00,39.1,38.6,29.92,East,99,0.0,0.0,98,0.00,,---,0.07,0.00,VWS V14.01,2013-01-26 15:37:00,
2013-01-26 07:40:00,39.2,38.7,29.92,East,100,0.0,0.0,98,0.00,,---,0.07,0.00,VWS V14.01,2013-01-26 15:40:00,
2013-01-26 07:42:00,39.2,38.7,29.91,East,98,1.0,1.0,98,0.00,,---,0.07,0.00,VWS V14.01,2013-01-26 15:42:00,
2013-01-26 07:45:00,39.2,38.7,29.91,East,98,0.0,1.0,98,0.00,,---,0.07,0.00,VWS V14.01,2013-01-26 15:45:00,
2013-01-26 07:47:00,39.3,38.8,29.91,East,85,0.0,1.0,98,0.00,,---,0.07,0.00,VWS V14.01,2013-01-26 15:47:00,
2013-01-26 07:50:00,39.3,38.8,29.91,East,83,0.0,1.0,98,0.00,,---,0.07,0.00,VWS V14.01,2013-01-26 15:50:00,
2013-01-26 07:52:00,39.3,38.8,29.92,East,84,0.0,2.0,98,0.00,,---,0.07,9.00,VWS V14.01,2013-01-26 15:52:00,
2013-01-26 07:55:00,39.3,38.8,29.92,East,84,0.0,2.0,98,0.00,,---,0.07,9.00,VWS V14.01,2013-01-26 15:55:00,
2013-01-26 07:57:00,39.3,38.8,29.92,East,85,0.0,0.0,98,0.00,,---,0.07,12.00,VWS V14.01,2013-01-26 15:57:00,
2013-01-26 08:00:00,39.3,38.8,29.92,East,85,0.0,0.0,98,0.00,,---,0.07,12.00,VWS V14.01,2013-01-26 16:00:00,
2013-01-26 08:02:00,39.3,38.8,29.92,East,84,0.0,0.0,98,0.00,,---,0.07,18.00,VWS V14.01,2013-01-26 16:02:00,
2013-01-26 08:05:00,39.3,38.8,29.92,East,83,0.0,0.0,98,0.00,,---,0.07,18.00,VWS V14.01,2013-01-26 16:05:00,
2013-01-26 08:07:00,39.4,38.9,29.92,East,84,0.0,0.0,98,0.00,,---,0.07,18.00,VWS V14.01,2013-01-26 16:07:00,
2013-01-26 08:10:00,39.4,38.9,29.92,East,85,0.0,0.0,98,0.00,,---,0.07,18.00,VWS V14.01,2013-01-26 16:10:00,
2013-01-26 08:12:00,39.4,38.9,29.92,East,85,0.0,0.0,98,0.00,,---,0.07,12.00,VWS V14.01,2013-01-26 16:12:00,
2013-01-26 08:15:00,39.4,38.9,29.92,East,83,0.0,0.0,98,0.00,,---,0.07,12.00,VWS V14.01,2013-01-26 16:15:00,
2013-01-26 08:17:00,39.4,38.9,29.92,East,84,0.0,0.0,98,0.00,,---,0.07,14.00,VWS V14.01,2013-01-26 16:17:00,
2013-01-26 08:20:00,39.4,38.9,29.92,East,85,0.0,0.0,98,0.00,,---,0.07,12.00,VWS V14.01,2013-01-26 16:20:00,
2013-01-26 08:22:00,39.4,38.9,29.92,East,85,0.0,0.0,98,0.00,,---,0.07,18.00,VWS V14.01,2013-01-26 16:22:00,
2013-01-26 08:25:00,39.4,38.9,29.92,East,85,0.0,0.0,98,0.00,,---,0.07,18.00,VWS V14.01,2013-01-26 16:25:00,
2013-01-26 08:27:00,39.4,38.9,29.92,East,83,0.0,1.0,98,0.01,,---,0.08,18.00,VWS V14.01,2013-01-26 16:27:00,
2013-01-26 08:30:00,39.4,38.9,29.92,East,85,0.0,1.0,98,0.01,,---,0.08,19.00,VWS V14.01,2013-01-26 16:30:00,
2013-01-26 08:32:00,39.4,38.9,29.92,East,86,0.0,1.0,98,0.01,,---,0.08,16.00,VWS V14.01,2013-01-26 16:32:00,
2013-01-26 08:35:00,39.4,38.9,29.92,East,84,0.0,1.0,98,0.01,,---,0.08,16.00,VWS V14.01,2013-01-26 16:35:00,
2013-01-26 08:37:00,39.5,39.0,29.92,East,85,1.0,1.0,98,0.01,,---,0.08,14.00,VWS V14.01,2013-01-26 16:37:00,
2013-01-26 08:40:00,39.5,39.0,29.92,East,84,0.0,1.0,98,0.01,,---,0.08,14.00,VWS V14.01,2013-01-26 16:40:00,
2013-01-26 08:42:00,39.5,39.0,29.92,East,93,1.0,2.0,98,0.02,,---,0.09,16.00,VWS V14.01,2013-01-26 16:42:00,
2013-01-26 08:45:00,39.5,39.0,29.92,ESE,112,1.0,2.0,98,0.02,,---,0.09,16.00,VWS V14.01,2013-01-26 16:45:00,
2013-01-26 08:47:00,39.5,39.0,29.92,SSE,167,0.0,2.0,98,0.02,,---,0.09,19.00,VWS V14.01,2013-01-26 16:47:00,
2013-01-26 08:50:00,39.5,39.0,29.92,SSE,167,0.0,2.0,98,0.02,,---,0.09,19.00,VWS V14.01,2013-01-26 16:50:00,
2013-01-26 08:52:00,39.5,39.0,29.92,SSE,158,3.0,7.0,98,0.02,,---,0.09,19.00,VWS V14.01,2013-01-26 16:52:00,
2013-01-26 08:55:00,39.5,39.0,29.92,SSE,159,2.0,7.0,98,0.02,,---,0.09,21.00,VWS V14.01,2013-01-26 16:55:00,
2013-01-26 08:57:00,39.6,39.1,29.92,SSW,207,6.0,8.0,98,0.02,,---,0.09,23.00,VWS V14.01,2013-01-26 16:57:00,
2013-01-26 09:00:00,39.6,39.1,29.92,South,182,5.0,8.0,98,0.02,,---,0.09,23.00,VWS V14.01,2013-01-26 17:00:00,
2013-01-26 09:02:00,39.8,39.3,29.93,South,191,6.0,7.0,98,0.02,,---,0.09,23.00,VWS V14.01,2013-01-26 17:02:00,
2013-01-26 09:05:00,39.8,39.3,29.93,SSW,201,7.0,7.0,98,0.02,,---,0.09,23.00,VWS V14.01,2013-01-26 17:05:00,
2013-01-26 09:07:00,39.9,39.4,29.93,SSW,208,5.0,8.0,98,0.02,,---,0.09,19.00,VWS V14.01,2013-01-26 17:07:00,
2013-01-26 09:10:00,39.9,39.4,29.93,SW,226,5.0,8.0,98,0.02,,---,0.09,19.00,VWS V14.01,2013-01-26 17:10:00,
2013-01-26 09:12:00,40.0,39.5,29.93,WSW,242,2.0,7.0,98,0.03,,---,0.10,21.00,VWS V14.01,2013-01-26 17:12:00,
2013-01-26 09:15:00,40.0,39.5,29.93,SW,221,6.0,7.0,98,0.03,,---,0.10,21.00,VWS V14.01,2013-01-26 17:15:00,
2013-01-26 09:17:00,40.1,39.3,29.93,SSW,195,3.0,10.0,97,0.03,,---,0.10,26.00,VWS V14.01,2013-01-26 17:17:00,
2013-01-26 09:20:00,40.1,39.3,29.93,SSW,197,2.0,10.0,97,0.03,,---,0.10,26.00,VWS V14.01,2013-01-26 17:20:00,
2013-01-26 09:22:00,40.2,39.4,29.93,SW,236,3.0,9.0,97,0.03,,---,0.10,25.00,VWS V14.01,2013-01-26 17:22:00,
2013-01-26 09:25:00,40.2,39.4,29.93,SW,236,3.0,9.0,97,0.03,,---,0.10,26.00,VWS V14.01,2013-01-26 17:25:00,
2013-01-26 09:27:00,40.2,39.4,29.93,WSW,238,2.0,9.0,97,0.03,,---,0.10,35.00,VWS V14.01,2013-01-26 17:27:00,
2013-01-26 09:30:00,40.2,39.4,29.93,SW,226,3.0,9.0,97,0.03,,---,0.10,32.00,VWS V14.01,2013-01-26 17:30:00,
2013-01-26 09:32:00,40.3,39.5,29.94,SW,225,4.0,5.0,97,0.02,,---,0.10,26.00,VWS V14.01,2013-01-26 17:32:00,
2013-01-26 09:35:00,40.3,39.5,29.94,SW,226,3.0,5.0,97,0.02,,---,0.10,26.00,VWS V14.01,2013-01-26 17:35:00,
2013-01-26 09:37:00,40.3,39.5,29.94,SW,225,1.0,6.0,97,0.02,,---,0.10,25.00,VWS V14.01,2013-01-26 17:37:00,
2013-01-26 09:40:00,40.3,39.5,29.94,SW,233,4.0,6.0,97,0.02,,---,0.10,25.00,VWS V14.01,2013-01-26 17:40:00,
2013-01-26 09:42:00,40.4,39.6,29.94,SW,221,2.0,5.0,97,0.02,,---,0.10,25.00,VWS V14.01,2013-01-26 17:42:00,
2013-01-26 09:45:00,40.3,39.5,29.94,SW,221,2.0,5.0,97,0.02,,---,0.10,25.00,VWS V14.01,2013-01-26 17:45:00,
2013-01-26 09:47:00,40.4,39.6,29.94,SSW,194,2.0,7.0,97,0.01,,---,0.10,23.00,VWS V14.01,2013-01-26 17:47:00,
2013-01-26 09:50:00,40.4,39.6,29.94,SSW,208,3.0,7.0,97,0.01,,---,0.10,23.00,VWS V14.01,2013-01-26 17:50:00,
2013-01-26 09:52:00,40.5,39.7,29.94,SW,226,3.0,8.0,97,0.01,,---,0.10,49.00,VWS V14.01,2013-01-26 17:52:00,
2013-01-26 09:55:00,40.5,39.7,29.94,SW,225,3.0,8.0,97,0.01,,---,0.10,49.00,VWS V14.01,2013-01-26 17:55:00,
2013-01-26 09:57:00,40.6,39.8,29.94,SW,232,4.0,7.0,97,0.01,,---,0.10,79.00,VWS V14.01,2013-01-26 17:57:00,
2013-01-26 10:00:00,40.6,39.8,29.94,SW,215,4.0,7.0,97,0.01,,---,0.10,79.00,VWS V14.01,2013-01-26 18:00:00,
2013-01-26 10:02:00,40.8,40.0,29.94,South,175,1.0,6.0,97,0.01,,---,0.10,120.00,VWS V14.01,2013-01-26 18:02:00,
2013-01-26 10:05:00,40.8,40.0,29.94,SSW,199,3.0,6.0,97,0.01,,---,0.10,118.00,VWS V14.01,2013-01-26 18:05:00,
2013-01-26 10:07:00,41.0,40.0,29.94,South,190,3.0,7.0,96,0.01,,---,0.10,90.00,VWS V14.01,2013-01-26 18:07:00,
2013-01-26 10:10:00,41.0,40.0,29.94,South,190,3.0,7.0,96,0.01,,---,0.10,90.00,VWS V14.01,2013-01-26 18:10:00,
2013-01-26 10:12:00,41.2,40.2,29.94,South,187,4.0,10.0,96,0.01,,---,0.10,76.00,VWS V14.01,2013-01-26 18:12:00,
2013-01-26 10:15:00,41.2,40.2,29.94,SSW,202,5.0,10.0,96,0.01,,---,0.10,76.00,VWS V14.01,2013-01-26 18:15:00,
2013-01-26 10:17:00,41.5,40.2,29.95,SSW,198,3.0,11.0,95,0.00,,---,0.10,63.00,VWS V14.01,2013-01-26 18:17:00,
2013-01-26 10:20:00,41.5,40.2,29.95,SSW,202,5.0,11.0,95,0.00,,---,0.10,63.00,VWS V14.01,2013-01-26 18:20:00,
2013-01-26 10:22:00,41.7,40.1,29.95,South,176,5.0,8.0,94,0.00,,---,0.10,63.00,VWS V14.01,2013-01-26 18:22:00,
2013-01-26 10:25:00,41.6,40.0,29.95,SW,221,6.0,8.0,94,0.00,,---,0.10,63.00,VWS V14.01,2013-01-26 18:25:00,
2013-01-26 10:27:00,41.8,40.2,29.95,SW,223,7.0,15.0,94,0.00,,---,0.10,74.00,VWS V14.01,2013-01-26 18:27:00,
2013-01-26 10:30:00,41.8,40.2,29.95,SW,232,4.0,15.0,94,0.00,,---,0.10,74.00,VWS V14.01,2013-01-26 18:30:00,
2013-01-26 10:32:00,42.0,40.1,29.95,SW,224,7.0,12.0,93,0.00,,---,0.10,118.00,VWS V14.01,2013-01-26 18:32:00,
2013-01-26 10:35:00,42.0,40.1,29.95,WSW,243,6.0,12.0,93,0.00,,---,0.10,118.00,VWS V14.01,2013-01-26 18:35:00,
2013-01-26 10:37:00,42.3,40.2,29.95,SW,235,9.0,10.0,92,0.00,,---,0.10,84.00,VWS V14.01,2013-01-26 18:37:00,
2013-01-26 10:40:00,42.3,40.2,29.95,SW,234,8.0,10.0,92,0.00,,---,0.10,86.00,VWS V14.01,2013-01-26 18:40:00,
2013-01-26 10:42:00,42.5,40.1,29.95,SSW,194,5.0,8.0,91,0.00,,---,0.10,84.00,VWS V14.01,2013-01-26 18:42:00,
2013-01-26 10:45:00,42.5,40.1,29.95,South,186,3.0,8.0,91,0.00,,---,0.10,90.00,VWS V14.01,2013-01-26 18:45:00,
2013-01-26 10:47:00,42.6,40.2,29.95,WSW,250,13.0,13.0,91,0.00,,---,0.10,95.00,VWS V14.01,2013-01-26 18:47:00,
2013-01-26 10:50:00,42.6,40.2,29.95,SSW,212,7.0,13.0,91,0.00,,---,0.10,95.00,VWS V14.01,2013-01-26 18:50:00,
2013-01-26 10:52:00,42.7,40.0,29.95,SSW,204,8.0,8.0,90,0.00,,---,0.10,98.00,VWS V14.01,2013-01-26 18:52:00,
2013-01-26 10:55:00,42.8,40.1,29.95,South,184,8.0,8.0,90,0.00,,---,0.10,98.00,VWS V14.01,2013-01-26 18:55:00,
2013-01-26 10:57:00,42.9,40.2,29.95,SSE,159,9.0,15.0,90,0.00,,---,0.10,104.00,VWS V14.01,2013-01-26 18:57:00,
2013-01-26 11:00:00,42.9,40.2,29.95,SSW,204,6.0,15.0,90,0.00,,---,0.10,104.00,VWS V14.01,2013-01-26 19:00:00,
2013-01-26 11:02:00,43.1,40.1,29.95,SSW,200,6.0,10.0,89,0.00,,---,0.10,100.00,VWS V14.01,2013-01-26 19:02:00,
2013-01-26 11:05:00,43.1,40.1,29.95,South,182,4.0,10.0,89,0.00,,---,0.10,100.00,VWS V14.01,2013-01-26 19:05:00,
2013-01-26 11:07:00,43.1,40.1,29.95,SSW,207,4.0,9.0,89,0.00,,---,0.10,79.00,VWS V14.01,2013-01-26 19:07:00,
2013-01-26 11:10:00,43.2,40.2,29.95,South,178,4.0,9.0,89,0.00,,---,0.10,79.00,VWS V14.01,2013-01-26 19:10:00,
2013-01-26 11:12:00,43.2,40.2,29.95,WSW,246,5.0,11.0,89,0.00,,---,0.10,88.00,VWS V14.01,2013-01-26 19:12:00,
2013-01-26 11:15:00,43.2,40.2,29.95,WSW,246,3.0,11.0,89,0.00,,---,0.10,98.00,VWS V14.01,2013-01-26 19:15:00,
2013-01-26 11:17:00,43.3,40.6,29.95,SSW,196,5.0,7.0,90,0.00,,---,0.10,93.00,VWS V14.01,2013-01-26 19:17:00,
2013-01-26 11:20:00,43.3,40.6,29.95,South,171,8.0,8.0,90,0.00,,---,0.10,93.00,VWS V14.01,2013-01-26 19:20:00,
2013-01-26 11:22:00,43.3,40.3,29.95,SSW,209,11.0,11.0,89,0.00,,---,0.10,70.00,VWS V14.01,2013-01-26 19:22:00,
2013-01-26 11:25:00,43.3,40.3,29.95,WSW,244,11.0,11.0,89,0.00,,---,0.10,70.00,VWS V14.01,2013-01-26 19:25:00,
2013-01-26 11:27:00,43.3,40.0,29.95,SSW,199,7.0,11.0,88,0.00,,---,0.10,53.00,VWS V14.01,2013-01-26 19:27:00,
2013-01-26 11:30:00,43.4,40.1,29.95,SW,232,5.0,11.0,88,0.00,,---,0.10,53.00,VWS V14.01,2013-01-26 19:30:00,
2013-01-26 11:32:00,43.4,40.1,29.95,SSW,199,10.0,12.0,88,0.00,,---,0.10,47.00,VWS V14.01,2013-01-26 19:32:00,
2013-01-26 11:35:00,43.4,40.1,29.95,SSW,209,8.0,12.0,88,0.00,,---,0.10,47.00,VWS V14.01,2013-01-26 19:35:00,
2013-01-26 11:37:00,43.4,40.1,29.95,SW,231,6.0,13.0,88,0.00,,---,0.10,47.00,VWS V14.01,2013-01-26 19:37:00,
2013-01-26 11:40:00,43.4,40.1,29.95,SSE,168,10.0,13.0,88,0.00,,---,0.10,47.00,VWS V14.01,2013-01-26 19:40:00,
2013-01-26 11:42:00,43.4,39.8,29.95,SW,228,10.0,12.0,87,0.00,,---,0.10,49.00,VWS V14.01,2013-01-26 19:42:00,
2013-01-26 11:45:00,43.4,39.8,29.95,SW,223,8.0,12.0,87,0.00,,---,0.10,47.00,VWS V14.01,2013-01-26 19:45:00,
2013-01-26 11:47:00,43.5,39.9,29.95,South,190,7.0,12.0,87,0.00,,---,0.10,76.00,VWS V14.01,2013-01-26 19:47:00,
2013-01-26 11:50:00,43.6,40.0,29.95,South,169,5.0,12.0,87,0.00,,---,0.10,77.00,VWS V14.01,2013-01-26 19:50:00,
2013-01-26 11:52:00,43.7,39.8,29.95,South,184,7.0,11.0,86,0.00,,---,0.10,81.00,VWS V14.01,2013-01-26 19:52:00,
2013-01-26 11:55:00,43.7,39.8,29.95,SSW,204,5.0,11.0,86,0.00,,---,0.10,84.00,VWS V14.01,2013-01-26 19:55:00,
2013-01-26 11:57:00,43.8,39.9,29.95,South,180,5.0,11.0,86,0.00,,---,0.10,70.00,VWS V14.01,2013-01-26 19:57:00,
2013-01-26 12:00:00,43.8,39.9,29.95,SSE,164,6.0,11.0,86,0.00,,---,0.10,70.00,VWS V14.01,2013-01-26 20:00:00,
2013-01-26 12:02:00,43.9,40.0,29.95,South,173,5.0,8.0,86,0.00,,---,0.10,72.00,VWS V14.01,2013-01-26 20:02:00,
2013-01-26 12:05:00,43.9,40.0,29.95,SSW,213,7.0,8.0,86,0.00,,---,0.10,72.00,VWS V14.01,2013-01-26 20:05:00,
2013-01-26 12:07:00,44.0,40.1,29.95,SW,216,5.0,13.0,86,0.00,,---,0.10,54.00,VWS V14.01,2013-01-26 20:07:00,
2013-01-26 12:10:00,44.0,40.1,29.95,SSW,200,4.0,13.0,86,0.00,,---,0.10,54.00,VWS V14.01,2013-01-26 20:10:00,
2013-01-26 12:12:00,44.0,39.8,29.94,WSW,240,6.0,10.0,85,0.00,,---,0.10,74.00,VWS V14.01,2013-01-26 20:12:00,
2013-01-26 12:15:00,44.0,39.8,29.94,WSW,248,7.0,10.0,85,0.00,,---,0.10,74.00,VWS V14.01,2013-01-26 20:15:00,
2013-01-26 12:17:00,44.1,39.9,29.94,SSW,203,4.0,9.0,85,0.00,,---,0.10,58.00,VWS V14.01,2013-01-26 20:17:00,
2013-01-26 12:20:00,44.1,39.9,29.94,South,184,3.0,9.0,85,0.00,,---,0.10,60.00,VWS V14.01,2013-01-26 20:20:00,
2013-01-26 12:22:00,44.2,40.0,29.94,SSW,209,3.0,5.0,85,0.00,,---,0.10,54.00,VWS V14.01,2013-01-26 20:22:00,
2013-01-26 12:25:00,44.2,40.0,29.94,SSW,204,1.0,5.0,85,0.00,,---,0.10,53.00,VWS V14.01,2013-01-26 20:25:00,
2013-01-26 12:27:00,44.2,39.7,29.94,SW,219,5.0,7.0,84,0.00,,---,0.10,60.00,VWS V14.01,2013-01-26 20:27:00,
2013-01-26 12:30:00,44.2,39.7,29.94,WSW,250,5.0,7.0,84,0.00,,---,0.10,60.00,VWS V14.01,2013-01-26 20:30:00,
2013-01-26 12:32:00,44.3,39.8,29.94,SSW,200,7.0,8.0,84,0.00,,---,0.10,58.00,VWS V14.01,2013-01-26 20:32:00,
2013-01-26 12:35:00,44.3,39.5,29.94,SW,221,5.0,8.0,83,0.00,,---,0.10,58.00,VWS V14.01,2013-01-26 20:35:00,
2013-01-26 12:37:00,44.4,39.6,29.94,SSW,208,7.0,14.0,83,0.00,,---,0.10,81.00,VWS V14.01,2013-01-26 20:37:00,
2013-01-26 12:40:00,44.4,39.3,29.94,SW,223,9.0,14.0,82,0.00,,---,0.10,81.00,VWS V14.01,2013-01-26 20:40:00,
2013-01-26 12:42:00,44.5,39.7,29.94,WSW,244,4.0,9.0,83,0.00,,---,0.10,74.00,VWS V14.01,2013-01-26 20:42:00,
2013-01-26 12:45:00,44.5,39.7,29.94,SW,225,5.0,9.0,83,0.00,,---,0.10,74.00,VWS V14.01,2013-01-26 20:45:00,
2013-01-26 12:47:00,44.6,39.8,29.94,South,182,9.0,11.0,83,0.00,,---,0.10,91.00,VWS V14.01,2013-01-26 20:47:00,
2013-01-26 12:50:00,44.6,39.8,29.94,South,181,11.0,11.0,83,0.00,,---,0.10,91.00,VWS V14.01,2013-01-26 20:50:00,
2013-01-26 12:52:00,44.7,39.5,29.94,WSW,242,6.0,12.0,82,0.00,,---,0.10,93.00,VWS V14.01,2013-01-26 20:52:00,
2013-01-26 12:55:00,44.7,39.5,29.94,SW,217,5.0,12.0,82,0.00,,---,0.10,93.00,VWS V14.01,2013-01-26 20:55:00,
2013-01-26 12:57:00,44.8,39.7,29.94,SW,216,14.0,14.0,82,0.00,,---,0.10,91.00,VWS V14.01,2013-01-26 20:57:00,
2013-01-26 13:00:00,44.8,39.7,29.94,SW,225,12.0,14.0,82,0.00,,---,0.10,90.00,VWS V14.01,2013-01-26 21:00:00,
2013-01-26 13:02:00,44.9,39.4,29.94,WSW,239,5.0,13.0,81,0.00,,---,0.10,97.00,VWS V14.01,2013-01-26 21:02:00,
2013-01-26 13:05:00,44.9,39.4,29.94,SSW,195,5.0,13.0,81,0.00,,---,0.10,97.00,VWS V14.01,2013-01-26 21:05:00,
2013-01-26 13:07:00,44.9,39.4,29.94,South,178,6.0,13.0,81,0.00,,---,0.10,91.00,VWS V14.01,2013-01-26 21:07:00,
2013-01-26 13:10:00,44.9,39.4,29.94,SSW,204,8.0,13.0,81,0.00,,---,0.10,91.00,VWS V14.01,2013-01-26 21:10:00,
2013-01-26 13:12:00,44.9,39.4,29.94,SSW,192,7.0,11.0,81,0.00,,---,0.10,113.00,VWS V14.01,2013-01-26 21:12:00,
2013-01-26 13:15:00,44.9,39.4,29.94,SSW,203,7.0,11.0,81,0.00,,---,0.10,113.00,VWS V14.01,2013-01-26 21:15:00,
2013-01-26 13:17:00,45.0,39.2,29.94,SSW,205,7.0,13.0,80,0.00,,---,0.10,188.00,VWS V14.01,2013-01-26 21:17:00,
2013-01-26 13:20:00,45.0,39.2,29.94,SW,226,9.0,13.0,80,0.00,,---,0.10,188.00,VWS V14.01,2013-01-26 21:20:00,
2013-01-26 13:22:00,45.1,39.0,29.94,West,279,7.0,14.0,79,0.00,,---,0.10,186.00,VWS V14.01,2013-01-26 21:22:00,
2013-01-26 13:25:00,45.2,39.1,29.94,SW,234,10.0,14.0,79,0.00,,---,0.10,186.00,VWS V14.01,2013-01-26 21:25:00,
2013-01-26 13:27:00,45.4,39.3,29.94,WSW,238,8.0,16.0,79,0.00,,---,0.10,200.00,VWS V14.01,2013-01-26 21:27:00,
2013-01-26 13:30:00,45.4,39.3,29.94,SW,236,6.0,16.0,79,0.00,,---,0.10,195.00,VWS V14.01,2013-01-26 21:30:00,
2013-01-26 13:32:00,45.5,39.7,29.94,SSW,213,9.0,13.0,80,0.00,,---,0.10,204.00,VWS V14.01,2013-01-26 21:32:00,
2013-01-26 13:35:00,45.5,39.7,29.94,WSW,239,11.0,13.0,80,0.00,,---,0.10,232.00,VWS V14.01,2013-01-26 21:35:00,
2013-01-26 13:37:00,45.7,39.9,29.94,SW,235,7.0,12.0,80,0.00,,---,0.10,243.00,VWS V14.01,2013-01-26 21:37:00,
2013-01-26 13:40:00,45.7,39.6,29.94,WSW,254,5.0,12.0,79,0.00,,---,0.10,243.00,VWS V14.01,2013-01-26 21:40:00,
2013-01-26 13:42:00,45.7,39.6,29.94,WSW,256,10.0,13.0,79,0.00,,---,0.10,199.00,VWS V14.01,2013-01-26 21:42:00,
2013-01-26 13:45:00,45.7,39.6,29.94,West,279,7.0,13.0,79,0.00,,---,0.10,199.00,VWS V14.01,2013-01-26 21:45:00,
2013-01-26 13:47:00,45.6,39.2,29.94,SW,225,6.0,16.0,78,0.00,,---,0.10,123.00,VWS V14.01,2013-01-26 21:47:00,
2013-01-26 13:50:00,45.6,39.2,29.94,SW,225,4.0,16.0,78,0.00,,---,0.10,123.00,VWS V14.01,2013-01-26 21:50:00,
2013-01-26 13:52:00,45.4,39.3,29.94,SW,215,8.0,11.0,79,0.00,,---,0.10,125.00,VWS V14.01,2013-01-26 21:52:00,
2013-01-26 13:55:00,45.4,39.3,29.94,SW,227,10.0,11.0,79,0.00,,---,0.10,125.00,VWS V14.01,2013-01-26 21:55:00,
2013-01-26 13:57:00,45.1,39.3,29.94,SW,225,6.0,12.0,80,0.00,,---,0.10,139.00,VWS V14.01,2013-01-26 21:57:00,
2013-01-26 14:00:00,45.1,39.3,29.94,WSW,240,6.0,12.0,80,0.00,,---,0.10,158.00,VWS V14.01,2013-01-26 22:00:00,
2013-01-26 14:02:00,45.0,39.5,29.94,SW,228,5.0,8.0,81,0.00,,---,0.10,183.00,VWS V14.01,2013-01-26 22:02:00,
2013-01-26 14:05:00,45.0,39.5,29.94,SW,228,5.0,8.0,81,0.00,,---,0.10,183.00,VWS V14.01,2013-01-26 22:05:00,
2013-01-26 14:07:00,45.0,39.8,29.94,SW,228,6.0,10.0,82,0.00,,---,0.10,163.00,VWS V14.01,2013-01-26 22:07:00,
2013-01-26 14:10:00,45.0,39.8,29.94,SW,228,6.0,10.0,82,0.00,,---,0.10,163.00,VWS V14.01,2013-01-26 22:10:00,
2013-01-26 14:12:00,45.0,39.8,29.94,WSW,257,3.0,10.0,82,0.00,,---,0.10,137.00,VWS V14.01,2013-01-26 22:12:00,
2013-01-26 14:15:00,45.0,39.8,29.94,WSW,242,4.0,10.0,82,0.00,,---,0.10,137.00,VWS V14.01,2013-01-26 22:15:00,
2013-01-26 14:17:00,45.0,39.8,29.94,WSW,238,2.0,11.0,82,0.00,,---,0.10,93.00,VWS V14.01,2013-01-26 22:17:00,
2013-01-26 14:20:00,45.0,39.8,29.94,WSW,238,2.0,11.0,82,0.00,,---,0.10,93.00,VWS V14.01,2013-01-26 22:20:00,
2013-01-26 14:22:00,44.9,40.1,29.94,WSW,250,5.0,8.0,83,0.00,,---,0.10,62.00,VWS V14.01,2013-01-26 22:22:00,
2013-01-26 14:25:00,44.9,40.1,29.94,WSW,244,5.0,8.0,83,0.00,,---,0.10,62.00,VWS V14.01,2013-01-26 22:25:00,
2013-01-26 14:27:00,44.9,39.8,29.94,SW,218,8.0,12.0,82,0.00,,---,0.10,114.00,VWS V14.01,2013-01-26 22:27:00,
2013-01-26 14:30:00,44.9,39.8,29.94,SW,221,8.0,12.0,82,0.00,,---,0.10,114.00,VWS V14.01,2013-01-26 22:30:00,
2013-01-26 14:32:00,44.8,39.7,29.94,SW,221,8.0,11.0,82,0.00,,---,0.10,116.00,VWS V14.01,2013-01-26 22:32:00,
2013-01-26 14:35:00,44.8,39.7,29.94,SW,219,8.0,11.0,82,0.00,,---,0.10,116.00,VWS V14.01,2013-01-26 22:35:00,
2013-01-26 14:37:00,44.8,39.7,29.94,SW,223,9.0,12.0,82,0.00,,---,0.10,114.00,VWS V14.01,2013-01-26 22:37:00,
2013-01-26 14:40:00,44.8,39.7,29.94,SW,223,9.0,12.0,82,0.00,,---,0.10,114.00,VWS V14.01,2013-01-26 22:40:00,
2013-01-26 14:42:00,44.8,39.7,29.94,SSW,195,5.0,9.0,82,0.00,,---,0.10,111.00,VWS V14.01,2013-01-26 22:42:00,
2013-01-26 14:45:00,44.8,39.7,29.94,WSW,242,7.0,9.0,82,0.00,,---,0.10,111.00,VWS V14.01,2013-01-26 22:45:00,
2013-01-26 14:47:00,44.9,39.4,29.95,WSW,244,5.0,13.0,81,0.00,,---,0.10,90.00,VWS V14.01,2013-01-26 22:47:00,
2013-01-26 14:50:00,44.9,39.4,29.95,WSW,244,5.0,13.0,81,0.00,,---,0.10,90.00,VWS V14.01,2013-01-26 22:50:00,
2013-01-26 14:52:00,44.9,39.4,29.95,SW,236,3.0,10.0,81,0.00,,---,0.10,86.00,VWS V14.01,2013-01-26 22:52:00,
2013-01-26 14:55:00,44.9,39.4,29.95,SW,236,3.0,10.0,81,0.00,,---,0.10,86.00,VWS V14.01,2013-01-26 22:55:00,
2013-01-26 14:57:00,45.0,39.5,29.95,SW,229,5.0,10.0,81,0.00,,---,0.10,90.00,VWS V14.01,2013-01-26 22:57:00,
2013-01-26 15:00:00,45.0,39.5,29.95,SW,217,5.0,10.0,81,0.00,,---,0.10,90.00,VWS V14.01,2013-01-26 23:00:00,
2013-01-26 15:02:00,45.0,39.2,29.95,WSW,242,5.0,12.0,80,0.00,,---,0.10,76.00,VWS V14.01,2013-01-26 23:02:00,
2013-01-26 15:05:00,45.0,39.2,29.95,WSW,237,4.0,12.0,80,0.00,,---,0.10,76.00,VWS V14.01,2013-01-26 23:05:00,
2013-01-26 15:07:00,44.9,39.4,29.95,WSW,241,6.0,8.0,81,0.00,,---,0.10,54.00,VWS V14.01,2013-01-26 23:07:00,
2013-01-26 15:10:00,44.9,39.4,29.95,SW,223,7.0,8.0,81,0.00,,---,0.10,54.00,VWS V14.01,2013-01-26 23:10:00,
2013-01-26 15:12:00,44.9,39.4,29.95,SW,229,6.0,9.0,81,0.00,,---,0.10,42.00,VWS V14.01,2013-01-26 23:12:00,
2013-01-26 15:15:00,44.9,39.4,29.95,SW,228,8.0,9.0,81,0.00,,---,0.10,42.00,VWS V14.01,2013-01-26 23:15:00,
2013-01-26 15:17:00,44.8,39.7,29.95,SW,215,8.0,9.0,82,0.00,,---,0.10,40.00,VWS V14.01,2013-01-26 23:17:00,
2013-01-26 15:20:00,44.8,39.7,29.95,SW,233,6.0,9.0,82,0.00,,---,0.10,40.00,VWS V14.01,2013-01-26 23:20:00,
2013-01-26 15:22:00,44.8,39.7,29.95,South,179,7.0,7.0,82,0.00,,---,0.10,26.00,VWS V14.01,2013-01-26 23:22:00,
2013-01-26 15:25:00,44.8,39.7,29.95,South,179,7.0,7.0,82,0.00,,---,0.10,26.00,VWS V14.01,2013-01-26 23:25:00,
2013-01-26 15:27:00,44.7,39.5,29.95,SW,236,6.0,9.0,82,0.00,,---,0.10,30.00,VWS V14.01,2013-01-26 23:27:00,
2013-01-26 15:30:00,44.7,39.5,29.95,WSW,254,3.0,9.0,82,0.00,,---,0.10,30.00,VWS V14.01,2013-01-26 23:30:00,
2013-01-26 15:32:00,44.5,39.4,29.95,SSW,205,6.0,9.0,82,0.00,,---,0.10,32.00,VWS V14.01,2013-01-26 23:32:00,
2013-01-26 15:35:00,44.5,39.4,29.95,SW,227,5.0,9.0,82,0.00,,---,0.10,32.00,VWS V14.01,2013-01-26 23:35:00,
2013-01-26 15:37:00,44.5,39.7,29.95,West,262,5.0,5.0,83,0.00,,---,0.10,32.00,VWS V14.01,2013-01-26 23:37:00,
2013-01-26 15:40:00,44.5,39.7,29.95,WSW,255,5.0,5.0,83,0.00,,---,0.10,32.00,VWS V14.01,2013-01-26 23:40:00,
2013-01-26 15:42:00,44.3,39.8,29.95,West,275,2.0,7.0,84,0.00,,---,0.10,39.00,VWS V14.01,2013-01-26 23:42:00,
2013-01-26 15:45:00,44.3,39.8,29.95,West,275,2.0,7.0,84,0.00,,---,0.10,39.00,VWS V14.01,2013-01-26 23:45:00,
2013-01-26 15:47:00,44.2,39.7,29.95,West,267,3.0,6.0,84,0.00,,---,0.10,47.00,VWS V14.01,2013-01-26 23:47:00,
2013-01-26 15:50:00,44.2,39.7,29.95,WSW,257,4.0,6.0,84,0.00,,---,0.10,47.00,VWS V14.01,2013-01-26 23:50:00,
2013-01-26 15:52:00,44.1,39.3,29.95,SW,228,6.0,9.0,83,0.00,,---,0.10,44.00,VWS V14.01,2013-01-26 23:52:00,
2013-01-26 15:55:00,44.1,39.3,29.95,WSW,238,5.0,9.0,83,0.00,,---,0.10,44.00,VWS V14.01,2013-01-26 23:55:00,
2013-01-26 15:57:00,44.1,39.3,29.95,WSW,250,4.0,7.0,83,0.00,,---,0.10,40.00,VWS V14.01,2013-01-26 23:57:00,
2013-01-26 16:00:00,44.1,39.3,29.95,WSW,250,3.0,7.0,83,0.00,,---,0.10,40.00,VWS V14.01,2013-01-27 00:00:00,
2013-01-26 16:02:00,44.1,39.0,29.95,SW,216,5.0,12.0,82,0.00,,---,0.10,33.00,VWS V14.01,2013-01-27 00:02:00,
2013-01-26 16:05:00,44.1,39.0,29.95,SSW,212,5.0,12.0,82,0.00,,---,0.10,33.00,VWS V14.01,2013-01-27 00:05:00,
2013-01-26 16:07:00,44.1,39.3,29.96,WSW,256,4.0,7.0,83,0.00,,---,0.10,28.00,VWS V14.01,2013-01-27 00:07:00,
2013-01-26 16:10:00,44.1,39.3,29.96,WSW,257,3.0,7.0,83,0.00,,---,0.10,28.00,VWS V14.01,2013-01-27 00:10:00,
2013-01-26 16:12:00,44.1,39.3,29.96,WSW,244,2.0,9.0,83,0.00,,---,0.10,28.00,VWS V14.01,2013-01-27 00:12:00,
2013-01-26 16:15:00,44.1,39.3,29.96,WSW,244,2.0,9.0,83,0.00,,---,0.10,28.00,VWS V14.01,2013-01-27 00:15:00,
2013-01-26 16:17:00,44.0,39.2,29.96,SSW,205,2.0,8.0,83,0.00,,---,0.10,32.00,VWS V14.01,2013-01-27 00:17:00,
2013-01-26 16:20:00,44.0,39.2,29.96,WSW,256,3.0,8.0,83,0.00,,---,0.10,32.00,VWS V14.01,2013-01-27 00:20:00,
2013-01-26 16:22:00,44.0,39.2,29.96,SW,223,5.0,6.0,83,0.00,,---,0.10,37.00,VWS V14.01,2013-01-27 00:22:00,
2013-01-26 16:25:00,44.0,39.2,29.96,SW,223,5.0,6.0,83,0.00,,---,0.10,37.00,VWS V14.01,2013-01-27 00:25:00,
2013-01-26 16:27:00,44.0,39.2,29.96,SSW,211,2.0,7.0,83,0.00,,---,0.10,39.00,VWS V14.01,2013-01-27 00:27:00,
2013-01-26 16:30:00,44.0,39.2,29.96,SSW,211,2.0,7.0,83,0.00,,---,0.10,39.00,VWS V14.01,2013-01-27 00:30:00,
2013-01-26 16:32:00,44.0,39.2,29.96,SSW,211,5.0,8.0,83,0.00,,---,0.10,37.00,VWS V14.01,2013-01-27 00:32:00,
2013-01-26 16:35:00,44.0,39.2,29.96,SSW,211,5.0,8.0,83,0.00,,---,0.10,37.00,VWS V14.01,2013-01-27 00:35:00,
2013-01-26 16:37:00,44.0,39.2,29.96,SSW,205,7.0,7.0,83,0.00,,---,0.10,25.00,VWS V14.01,2013-01-27 00:37:00,
2013-01-26 16:40:00,44.0,39.2,29.96,SSW,196,4.0,7.0,83,0.00,,---,0.10,25.00,VWS V14.01,2013-01-27 00:40:00,
2013-01-26 16:42:00,44.0,39.2,29.96,SW,228,3.0,8.0,83,0.00,,---,0.10,14.00,VWS V14.01,2013-01-27 00:42:00,
2013-01-26 16:45:00,44.0,39.2,29.96,WSW,240,4.0,8.0,83,0.00,,---,0.10,14.00,VWS V14.01,2013-01-27 00:45:00,
2013-01-26 16:47:00,44.0,38.9,29.96,WSW,246,4.0,9.0,82,0.00,,---,0.10,9.00,VWS V14.01,2013-01-27 00:47:00,
2013-01-26 16:50:00,44.0,38.9,29.96,WSW,244,3.0,9.0,82,0.00,,---,0.10,9.00,VWS V14.01,2013-01-27 00:50:00,
2013-01-26 16:52:00,43.9,39.1,29.97,SW,225,5.0,8.0,83,0.00,,---,0.10,7.00,VWS V14.01,2013-01-27 00:52:00,
2013-01-26 16:55:00,43.9,39.1,29.97,SW,229,3.0,8.0,83,0.00,,---,0.10,5.00,VWS V14.01,2013-01-27 00:55:00,
2013-01-26 16:57:00,43.8,39.0,29.97,SSW,211,4.0,7.0,83,0.00,,---,0.10,0.00,VWS V14.01,2013-01-27 00:57:00,
2013-01-26 17:00:00,43.8,39.0,29.97,SW,223,5.0,7.0,83,0.00,,---,0.10,0.00,VWS V14.01,2013-01-27 01:00:00,
2013-01-26 17:02:00,43.8,39.0,29.97,SSW,202,4.0,8.0,83,0.00,,---,0.10,0.00,VWS V14.01,2013-01-27 01:02:00,
2013-01-26 17:05:00,43.8,39.0,29.97,SSW,202,4.0,8.0,83,0.00,,---,0.10,0.00,VWS V14.01,2013-01-27 01:05:00,
2013-01-26 17:07:00,43.7,38.9,29.97,SW,236,4.0,9.0,83,0.00,,---,0.10,0.00,VWS V14.01,2013-01-27 01:07:00,
2013-01-26 17:10:00,43.7,38.9,29.97,SW,232,6.0,9.0,83,0.00,,---,0.10,0.00,VWS V14.01,2013-01-27 01:10:00,
2013-01-26 17:12:00,43.6,39.1,29.97,SSW,192,6.0,6.0,84,0.00,,---,0.10,0.00,VWS V14.01,2013-01-27 01:12:00,
2013-01-26 17:15:00,43.6,39.1,29.97,South,190,4.0,6.0,84,0.00,,---,0.10,0.00,VWS V14.01,2013-01-27 01:15:00,
2013-01-26 17:17:00,43.5,39.0,29.98,West,273,4.0,6.0,84,0.00,,---,0.10,0.00,VWS V14.01,2013-01-27 01:17:00,
2013-01-26 17:20:00,43.5,39.0,29.98,WSW,245,2.0,6.0,84,0.00,,---,0.10,0.00,VWS V14.01,2013-01-27 01:20:00,
2013-01-26 17:22:00,43.4,39.2,29.98,SW,233,6.0,6.0,85,0.00,,---,0.10,0.00,VWS V14.01,2013-01-27 01:22:00,
2013-01-26 17:25:00,43.4,39.2,29.98,SW,233,6.0,6.0,85,0.00,,---,0.10,0.00,VWS V14.01,2013-01-27 01:25:00,
2013-01-26 17:27:00,43.3,39.1,29.98,SW,221,3.0,6.0,85,0.00,,---,0.10,0.00,VWS V14.01,2013-01-27 01:27:00,
2013-01-26 17:30:00,43.3,39.1,29.98,SSW,195,5.0,6.0,85,0.00,,---,0.10,0.00,VWS V14.01,2013-01-27 01:30:00,
2013-01-26 17:32:00,43.2,39.3,29.98,SSW,200,1.0,7.0,86,0.00,,---,0.10,0.00,VWS V14.01,2013-01-27 01:32:00,
2013-01-26 17:35:00,43.3,39.4,29.98,SSW,199,1.0,7.0,86,0.00,,---,0.10,0.00,VWS V14.01,2013-01-27 01:35:00,
2013-01-26 17:37:00,43.2,39.3,29.98,SW,229,2.0,5.0,86,0.00,,---,0.10,0.00,VWS V14.01,2013-01-27 01:37:00,
2013-01-26 17:40:00,43.2,39.3,29.98,SW,229,2.0,5.0,86,0.00,,---,0.10,0.00,VWS V14.01,2013-01-27 01:40:00,
2013-01-26 17:42:00,43.1,39.2,29.98,SW,236,1.0,5.0,86,0.00,,---,0.10,0.00,VWS V14.01,2013-01-27 01:42:00,
2013-01-26 17:45:00,43.1,39.2,29.98,SW,236,1.0,5.0,86,0.00,,---,0.10,0.00,VWS V14.01,2013-01-27 01:45:00,
2013-01-26 17:47:00,43.0,39.1,29.98,SW,219,0.0,4.0,86,0.00,,---,0.10,0.00,VWS V14.01,2013-01-27 01:47:00,
2013-01-26 17:50:00,43.0,39.1,29.98,SW,219,0.0,4.0,86,0.00,,---,0.10,0.00,VWS V14.01,2013-01-27 01:50:00,
2013-01-26 17:52:00,42.9,39.3,29.98,WSW,252,2.0,5.0,87,0.00,,---,0.10,0.00,VWS V14.01,2013-01-27 01:52:00,
2013-01-26 17:55:00,42.9,39.3,29.98,WSW,252,2.0,5.0,87,0.00,,---,0.10,0.00,VWS V14.01,2013-01-27 01:55:00,
2013-01-26 17:57:00,42.9,39.3,29.98,WSW,240,3.0,5.0,87,0.00,,---,0.10,0.00,VWS V14.01,2013-01-27 01:57:00,
2013-01-26 18:00:00,42.9,39.3,29.98,WSW,240,3.0,5.0,87,0.00,,---,0.10,0.00,VWS V14.01,2013-01-27 02:00:00,
2013-01-26 18:02:00,42.9,39.3,29.99,West,264,2.0,3.0,87,0.00,,---,0.10,0.00,VWS V14.01,2013-01-27 02:02:00,
2013-01-26 18:05:00,42.9,39.3,29.99,West,264,2.0,3.0,87,0.00,,---,0.10,0.00,VWS V14.01,2013-01-27 02:05:00,
2013-01-26 18:07:00,42.9,39.3,29.99,SW,236,2.0,4.0,87,0.00,,---,0.10,0.00,VWS V14.01,2013-01-27 02:07:00,
2013-01-26 18:10:00,42.9,39.3,29.99,SW,236,2.0,4.0,87,0.00,,---,0.10,0.00,VWS V14.01,2013-01-27 02:10:00,
2013-01-26 18:12:00,42.8,39.2,29.99,WSW,241,3.0,4.0,87,0.00,,---,0.10,0.00,VWS V14.01,2013-01-27 02:12:00,
2013-01-26 18:15:00,42.8,39.2,29.99,SW,236,3.0,4.0,87,0.00,,---,0.10,0.00,VWS V14.01,2013-01-27 02:15:00,
2013-01-26 18:17:00,42.7,39.4,29.99,SW,217,1.0,6.0,88,0.00,,---,0.10,0.00,VWS V14.01,2013-01-27 02:17:00,
2013-01-26 18:20:00,42.7,39.4,29.99,SW,217,1.0,6.0,88,0.00,,---,0.10,0.00,VWS V14.01,2013-01-27 02:20:00,
2013-01-26 18:22:00,42.6,39.3,29.99,SSW,198,3.0,7.0,88,0.00,,---,0.10,0.00,VWS V14.01,2013-01-27 02:22:00,
2013-01-26 18:25:00,42.6,39.3,29.99,SSW,198,3.0,7.0,88,0.00,,---,0.10,0.00,VWS V14.01,2013-01-27 02:25:00,
2013-01-26 18:27:00,42.5,38.9,29.99,SW,219,4.0,7.0,87,0.00,,---,0.10,0.00,VWS V14.01,2013-01-27 02:27:00,
2013-01-26 18:30:00,42.5,38.9,29.99,SW,219,4.0,7.0,87,0.00,,---,0.10,0.00,VWS V14.01,2013-01-27 02:30:00,
2013-01-26 18:32:00,42.5,38.9,29.99,South,186,3.0,7.0,87,0.00,,---,0.10,0.00,VWS V14.01,2013-01-27 02:32:00,
2013-01-26 18:35:00,42.5,38.9,29.99,South,186,3.0,7.0,87,0.00,,---,0.10,0.00,VWS V14.01,2013-01-27 02:35:00,
2013-01-26 18:37:00,42.4,38.8,29.99,SSE,159,3.0,5.0,87,0.00,,---,0.10,0.00,VWS V14.01,2013-01-27 02:37:00,
2013-01-26 18:40:00,42.4,38.8,29.99,SSE,159,3.0,5.0,87,0.00,,---,0.10,0.00,VWS V14.01,2013-01-27 02:40:00,
2013-01-26 18:42:00,42.4,38.8,29.99,WSW,246,5.0,8.0,87,0.00,,---,0.10,0.00,VWS V14.01,2013-01-27 02:42:00,
2013-01-26 18:45:00,42.4,38.8,29.99,South,188,4.0,8.0,87,0.00,,---,0.10,0.00,VWS V14.01,2013-01-27 02:45:00,
2013-01-26 18:47:00,42.3,38.7,29.99,SSW,202,7.0,8.0,87,0.00,,---,0.10,0.00,VWS V14.01,2013-01-27 02:47:00,
2013-01-26 18:50:00,42.3,38.7,29.99,SSW,202,4.0,8.0,87,0.00,,---,0.10,0.00,VWS V14.01,2013-01-27 02:50:00,
2013-01-26 18:52:00,42.3,38.7,30.00,South,176,10.0,10.0,87,0.00,,---,0.10,0.00,VWS V14.01,2013-01-27 02:52:00,
2013-01-26 18:55:00,42.3,38.7,30.00,South,185,8.0,10.0,87,0.00,,---,0.10,0.00,VWS V14.01,2013-01-27 02:55:00,
2013-01-26 18:57:00,42.3,38.7,30.00,SSW,209,7.0,8.0,87,0.00,,---,0.10,0.00,VWS V14.01,2013-01-27 02:57:00,
2013-01-26 19:00:00,42.3,38.7,30.00,SSW,209,7.0,8.0,87,0.00,,---,0.10,0.00,VWS V14.01,2013-01-27 03:00:00,
2013-01-26 19:02:00,42.2,38.6,30.00,SSW,200,4.0,10.0,87,0.00,,---,0.10,0.00,VWS V14.01,2013-01-27 03:02:00,
2013-01-26 19:05:00,42.2,38.6,30.00,SSW,200,4.0,10.0,87,0.00,,---,0.10,0.00,VWS V14.01,2013-01-27 03:05:00,
2013-01-26 19:07:00,42.2,38.9,30.00,South,190,4.0,6.0,88,0.00,,---,0.10,0.00,VWS V14.01,2013-01-27 03:07:00,
2013-01-26 19:10:00,42.2,38.9,30.00,South,190,4.0,6.0,88,0.00,,---,0.10,0.00,VWS V14.01,2013-01-27 03:10:00,
2013-01-26 19:12:00,42.1,38.8,30.00,SSW,213,3.0,9.0,88,0.00,,---,0.10,0.00,VWS V14.01,2013-01-27 03:12:00,
2013-01-26 19:15:00,42.1,38.8,30.00,SW,221,2.0,9.0,88,0.00,,---,0.10,0.00,VWS V14.01,2013-01-27 03:15:00,
2013-01-26 19:17:00,42.1,38.8,30.00,SW,223,5.0,7.0,88,0.00,,---,0.10,0.00,VWS V14.01,2013-01-27 03:17:00,
2013-01-26 19:20:00,42.1,38.8,30.00,SW,223,5.0,7.0,88,0.00,,---,0.10,0.00,VWS V14.01,2013-01-27 03:20:00,
2013-01-26 19:22:00,42.1,38.8,30.01,SSW,201,4.0,7.0,88,0.00,,---,0.10,0.00,VWS V14.01,2013-01-27 03:22:00,
2013-01-26 19:25:00,42.1,38.8,30.01,SSW,201,4.0,7.0,88,0.00,,---,0.10,0.00,VWS V14.01,2013-01-27 03:25:00,
2013-01-26 19:27:00,42.0,38.7,30.01,SSW,194,5.0,8.0,88,0.00,,---,0.10,0.00,VWS V14.01,2013-01-27 03:27:00,
2013-01-26 19:30:00,42.0,38.7,30.01,SSW,194,5.0,8.0,88,0.00,,---,0.10,0.00,VWS V14.01,2013-01-27 03:30:00,
2013-01-26 19:32:00,41.9,38.6,30.01,SSW,210,5.0,8.0,88,0.00,,---,0.10,0.00,VWS V14.01,2013-01-27 03:32:00,
2013-01-26 19:35:00,41.9,38.6,30.01,SSW,210,5.0,8.0,88,0.00,,---,0.10,0.00,VWS V14.01,2013-01-27 03:35:00,
2013-01-26 19:37:00,41.9,38.9,30.01,South,184,6.0,7.0,89,0.00,,---,0.10,0.00,VWS V14.01,2013-01-27 03:37:00,
2013-01-26 19:40:00,41.9,38.9,30.01,South,184,6.0,7.0,89,0.00,,---,0.10,0.00,VWS V14.01,2013-01-27 03:40:00,
2013-01-26 19:42:00,41.9,38.9,30.01,South,188,4.0,6.0,89,0.00,,---,0.10,0.00,VWS V14.01,2013-01-27 03:42:00,
2013-01-26 19:45:00,41.9,38.9,30.01,South,188,4.0,6.0,89,0.00,,---,0.10,0.00,VWS V14.01,2013-01-27 03:45:00,
2013-01-26 19:47:00,41.8,38.8,30.01,South,187,6.0,7.0,89,0.00,,---,0.10,0.00,VWS V14.01,2013-01-27 03:47:00,
2013-01-26 19:50:00,41.8,38.8,30.01,South,190,4.0,7.0,89,0.00,,---,0.10,0.00,VWS V14.01,2013-01-27 03:50:00,
2013-01-26 19:52:00,41.8,38.8,30.01,SSE,167,7.0,7.0,89,0.00,,---,0.10,0.00,VWS V14.01,2013-01-27 03:52:00,
2013-01-26 19:55:00,41.8,38.8,30.01,SSE,167,7.0,7.0,89,0.00,,---,0.10,0.00,VWS V14.01,2013-01-27 03:55:00,
2013-01-26 19:57:00,41.7,38.7,30.01,SSW,206,7.0,8.0,89,0.00,,---,0.10,0.00,VWS V14.01,2013-01-27 03:57:00,
2013-01-26 20:00:00,41.7,38.7,30.01,SSW,198,5.0,8.0,89,0.00,,---,0.10,0.00,VWS V14.01,2013-01-27 04:00:00,
2013-01-26 20:02:00,41.7,39.0,30.01,SW,227,7.0,8.0,90,0.00,,---,0.10,0.00,VWS V14.01,2013-01-27 04:02:00,
2013-01-26 20:05:00,41.7,39.0,30.01,SW,227,7.0,8.0,90,0.00,,---,0.10,0.00,VWS V14.01,2013-01-27 04:05:00,
2013-01-26 20:07:00,41.6,38.6,30.01,South,179,5.0,10.0,89,0.00,,---,0.10,0.00,VWS V14.01,2013-01-27 04:07:00,
2013-01-26 20:10:00,41.6,38.6,30.01,South,179,5.0,10.0,89,0.00,,---,0.10,0.00,VWS V14.01,2013-01-27 04:10:00,
2013-01-26 20:12:00,41.6,38.9,30.01,SSW,192,3.0,6.0,90,0.00,,---,0.10,0.00,VWS V14.01,2013-01-27 04:12:00,
2013-01-26 20:15:00,41.6,38.9,30.01,SSW,192,3.0,6.0,90,0.00,,---,0.10,0.00,VWS V14.01,2013-01-27 04:15:00,
2013-01-26 20:17:00,41.6,38.9,30.01,South,171,4.0,9.0,90,0.00,,---,0.10,0.00,VWS V14.01,2013-01-27 04:17:00,
2013-01-26 20:20:00,41.6,38.9,30.01,South,171,4.0,9.0,90,0.00,,---,0.10,0.00,VWS V14.01,2013-01-27 04:20:00,
2013-01-26 20:22:00,41.5,38.8,30.02,SSW,198,7.0,9.0,90,0.00,,---,0.10,0.00,VWS V14.01,2013-01-27 04:22:00,
2013-01-26 20:25:00,41.5,38.8,30.02,SSW,205,7.0,9.0,90,0.00,,---,0.10,0.00,VWS V14.01,2013-01-27 04:25:00,
2013-01-26 20:27:00,41.5,38.8,30.01,South,178,5.0,13.0,90,0.00,,---,0.10,0.00,VWS V14.01,2013-01-27 04:27:00,
2013-01-26 20:30:00,41.5,38.8,30.01,South,173,8.0,13.0,90,0.00,,---,0.10,0.00,VWS V14.01,2013-01-27 04:30:00,
2013-01-26 20:32:00,41.5,38.8,30.02,SW,217,7.0,12.0,90,0.00,,---,0.10,0.00,VWS V14.01,2013-01-27 04:32:00,
2013-01-26 20:35:00,41.5,38.8,30.02,South,189,7.0,12.0,90,0.00,,---,0.10,0.00,VWS V14.01,2013-01-27 04:35:00,
2013-01-26 20:37:00,41.5,38.8,30.02,South,187,3.0,8.0,90,0.00,,---,0.10,0.00,VWS V14.01,2013-01-27 04:37:00,
2013-01-26 20:40:00,41.5,38.8,30.02,South,187,3.0,8.0,90,0.00,,---,0.10,0.00,VWS V14.01,2013-01-27 04:40:00,
2013-01-26 20:42:00,41.5,38.8,30.02,SSW,193,2.0,6.0,90,0.00,,---,0.10,0.00,VWS V14.01,2013-01-27 04:42:00,
2013-01-26 20:45:00,41.5,38.8,30.02,SSW,196,4.0,6.0,90,0.00,,---,0.10,0.00,VWS V14.01,2013-01-27 04:45:00,
2013-01-26 20:47:00,41.5,38.8,30.02,SSW,205,3.0,7.0,90,0.00,,---,0.10,0.00,VWS V14.01,2013-01-27 04:47:00,
2013-01-26 20:50:00,41.5,38.8,30.02,SSW,205,3.0,7.0,90,0.00,,---,0.10,0.00,VWS V14.01,2013-01-27 04:50:00,
2013-01-26 20:52:00,41.4,38.7,30.02,South,185,3.0,7.0,90,0.00,,---,0.10,0.00,VWS V14.01,2013-01-27 04:52:00,
2013-01-26 20:55:00,41.4,38.7,30.02,South,185,3.0,7.0,90,0.00,,---,0.10,0.00,VWS V14.01,2013-01-27 04:55:00,
2013-01-26 20:57:00,41.4,38.7,30.02,SSE,155,3.0,7.0,90,0.00,,---,0.10,0.00,VWS V14.01,2013-01-27 04:57:00,
2013-01-26 21:00:00,41.4,38.7,30.02,South,190,5.0,7.0,90,0.00,,---,0.10,0.00,VWS V14.01,2013-01-27 05:00:00,
2013-01-26 21:02:00,41.4,38.7,30.02,SSE,157,3.0,9.0,90,0.00,,---,0.10,0.00,VWS V14.01,2013-01-27 05:02:00,
2013-01-26 21:05:00,41.4,38.7,30.02,SSW,205,7.0,9.0,90,0.00,,---,0.10,0.00,VWS V14.01,2013-01-27 05:05:00,
2013-01-26 21:07:00,41.4,38.7,30.02,South,182,5.0,8.0,90,0.00,,---,0.10,0.00,VWS V14.01,2013-01-27 05:07:00,
2013-01-26 21:10:00,41.4,38.7,30.02,South,188,4.0,8.0,90,0.00,,---,0.10,0.00,VWS V14.01,2013-01-27 05:10:00,
2013-01-26 21:12:00,41.4,38.7,30.02,SSW,201,6.0,6.0,90,0.00,,---,0.10,0.00,VWS V14.01,2013-01-27 05:12:00,
2013-01-26 21:15:00,41.4,38.7,30.02,South,186,8.0,8.0,90,0.00,,---,0.10,0.00,VWS V14.01,2013-01-27 05:15:00,
2013-01-26 21:17:00,41.4,38.7,30.02,South,173,7.0,8.0,90,0.00,,---,0.10,0.00,VWS V14.01,2013-01-27 05:17:00,
2013-01-26 21:20:00,41.4,38.7,30.02,South,178,9.0,9.0,90,0.00,,---,0.10,0.00,VWS V14.01,2013-01-27 05:20:00,
2013-01-26 21:22:00,41.4,38.7,30.02,South,191,6.0,9.0,90,0.00,,---,0.10,0.00,VWS V14.01,2013-01-27 05:22:00,
2013-01-26 21:25:00,41.4,38.7,30.02,South,184,6.0,9.0,90,0.00,,---,0.10,0.00,VWS V14.01,2013-01-27 05:25:00,
2013-01-26 21:27:00,41.4,38.7,30.03,South,187,2.0,8.0,90,0.00,,---,0.10,0.00,VWS V14.01,2013-01-27 05:27:00,
2013-01-26 21:30:00,41.4,38.7,30.03,SSW,195,4.0,8.0,90,0.00,,---,0.10,0.00,VWS V14.01,2013-01-27 05:30:00,
2013-01-26 21:32:00,41.4,38.7,30.03,South,183,4.0,7.0,90,0.00,,---,0.10,0.00,VWS V14.01,2013-01-27 05:32:00,
2013-01-26 21:35:00,41.4,38.7,30.03,SSW,192,5.0,7.0,90,0.00,,---,0.10,0.00,VWS V14.01,2013-01-27 05:35:00,
2013-01-26 21:37:00,41.4,38.7,30.03,SSW,196,2.0,6.0,90,0.00,,---,0.10,0.00,VWS V14.01,2013-01-27 05:37:00,
2013-01-26 21:40:00,41.4,38.7,30.03,South,175,5.0,6.0,90,0.00,,---,0.10,0.00,VWS V14.01,2013-01-27 05:40:00,
2013-01-26 21:42:00,41.4,38.7,30.03,SSW,198,3.0,6.0,90,0.00,,---,0.10,0.00,VWS V14.01,2013-01-27 05:42:00,
2013-01-26 21:45:00,41.3,38.6,30.03,SW,222,3.0,6.0,90,0.00,,---,0.10,0.00,VWS V14.01,2013-01-27 05:45:00,
2013-01-26 21:47:00,41.4,38.7,30.03,SW,215,2.0,10.0,90,0.00,,---,0.10,0.00,VWS V14.01,2013-01-27 05:47:00,
2013-01-26 21:50:00,41.4,38.7,30.03,SSW,213,4.0,10.0,90,0.00,,---,0.10,0.00,VWS V14.01,2013-01-27 05:50:00,
2013-01-26 21:52:00,41.4,38.7,30.03,SSW,211,5.0,7.0,90,0.00,,---,0.10,0.00,VWS V14.01,2013-01-27 05:52:00,
2013-01-26 21:55:00,41.3,38.6,30.03,SSW,204,8.0,8.0,90,0.00,,---,0.10,0.00,VWS V14.01,2013-01-27 05:55:00,
2013-01-26 21:57:00,41.4,38.7,30.03,South,175,3.0,10.0,90,0.00,,---,0.10,0.00,VWS V14.01,2013-01-27 05:57:00,
2013-01-26 22:00:00,41.4,38.7,30.03,South,184,3.0,10.0,90,0.00,,---,0.10,0.00,VWS V14.01,2013-01-27 06:00:00,
2013-01-26 22:02:00,41.4,38.7,30.03,South,191,7.0,8.0,90,0.00,,---,0.10,0.00,VWS V14.01,2013-01-27 06:02:00,
2013-01-26 22:05:00,41.4,38.7,30.03,SSE,164,4.0,8.0,90,0.00,,---,0.10,0.00,VWS V14.01,2013-01-27 06:05:00,
2013-01-26 22:07:00,41.4,38.7,30.03,South,175,6.0,8.0,90,0.00,,---,0.10,0.00,VWS V14.01,2013-01-27 06:07:00,
2013-01-26 22:10:00,41.4,38.7,30.03,South,177,4.0,8.0,90,0.00,,---,0.10,0.00,VWS V14.01,2013-01-27 06:10:00,
2013-01-26 22:12:00,41.4,38.7,30.03,South,188,6.0,6.0,90,0.00,,---,0.10,0.00,VWS V14.01,2013-01-27 06:12:00,
2013-01-26 22:15:00,41.4,38.7,30.03,SW,219,3.0,7.0,90,0.00,,---,0.10,0.00,VWS V14.01,2013-01-27 06:15:00,
2013-01-26 22:17:00,41.4,38.7,30.03,South,180,5.0,6.0,90,0.00,,---,0.10,0.00,VWS V14.01,2013-01-27 06:17:00,
2013-01-26 22:20:00,41.4,38.7,30.03,SSW,195,5.0,6.0,90,0.00,,---,0.10,0.00,VWS V14.01,2013-01-27 06:20:00,
2013-01-26 22:22:00,41.4,38.7,30.04,SSW,198,3.0,7.0,90,0.00,,---,0.10,0.00,VWS V14.01,2013-01-27 06:22:00,
2013-01-26 22:25:00,41.4,38.7,30.04,SW,224,4.0,7.0,90,0.00,,---,0.10,0.00,VWS V14.01,2013-01-27 06:25:00,
2013-01-26 22:27:00,41.4,38.7,30.04,South,188,6.0,7.0,90,0.00,,---,0.10,0.00,VWS V14.01,2013-01-27 06:27:00,
2013-01-26 22:30:00,41.4,38.7,30.04,South,181,5.0,7.0,90,0.00,,---,0.10,0.00,VWS V14.01,2013-01-27 06:30:00,
2013-01-26 22:32:00,41.4,38.7,30.04,SW,217,5.0,7.0,90,0.00,,---,0.10,0.00,VWS V14.01,2013-01-27 06:32:00,
2013-01-26 22:35:00,41.4,38.7,30.04,South,180,6.0,7.0,90,0.00,,---,0.10,0.00,VWS V14.01,2013-01-27 06:35:00,
2013-01-26 22:37:00,41.3,38.6,30.04,SSW,199,5.0,7.0,90,0.00,,---,0.10,0.00,VWS V14.01,2013-01-27 06:37:00,
2013-01-26 22:40:00,41.3,38.6,30.04,SSW,197,5.0,7.0,90,0.00,,---,0.10,0.00,VWS V14.01,2013-01-27 06:40:00,
2013-01-26 22:42:00,41.3,38.6,30.04,South,184,3.0,5.0,90,0.00,,---,0.10,0.00,VWS V14.01,2013-01-27 06:42:00,
2013-01-26 22:45:00,41.3,38.6,30.04,SW,234,5.0,7.0,90,0.00,,---,0.10,0.00,VWS V14.01,2013-01-27 06:45:00,
2013-01-26 22:47:00,41.3,38.6,30.05,South,190,2.0,7.0,90,0.00,,---,0.10,0.00,VWS V14.01,2013-01-27 06:47:00,
2013-01-26 22:50:00,41.3,38.6,30.05,SSW,193,4.0,7.0,90,0.00,,---,0.10,0.00,VWS V14.01,2013-01-27 06:50:00,
2013-01-26 22:52:00,41.3,38.6,30.05,SW,219,3.0,7.0,90,0.00,,---,0.10,0.00,VWS V14.01,2013-01-27 06:52:00,
2013-01-26 22:55:00,41.3,38.6,30.05,SW,227,6.0,7.0,90,0.00,,---,0.10,0.00,VWS V14.01,2013-01-27 06:55:00,
2013-01-26 22:57:00,41.3,38.6,30.05,SSW,198,5.0,7.0,90,0.00,,---,0.10,0.00,VWS V14.01,2013-01-27 06:57:00,
2013-01-26 23:00:00,41.3,38.6,30.05,SSW,193,5.0,7.0,90,0.00,,---,0.10,0.00,VWS V14.01,2013-01-27 07:00:00,
2013-01-26 23:02:00,41.3,38.6,30.05,South,175,9.0,10.0,90,0.00,,---,0.10,0.00,VWS V14.01,2013-01-27 07:02:00,
2013-01-26 23:05:00,41.3,38.6,30.05,SSW,196,7.0,10.0,90,0.00,,---,0.10,0.00,VWS V14.01,2013-01-27 07:05:00,
2013-01-26 23:07:00,41.4,38.7,30.05,South,190,5.0,8.0,90,0.00,,---,0.10,0.00,VWS V14.01,2013-01-27 07:07:00,
2013-01-26 23:10:00,41.4,38.7,30.05,South,178,4.0,8.0,90,0.00,,---,0.10,0.00,VWS V14.01,2013-01-27 07:10:00,
2013-01-26 23:13:00,41.4,38.7,30.05,SSW,192,4.0,4.0,90,0.00,,---,0.10,0.00,VWS V14.01,2013-01-27 07:13:00,
2013-01-26 23:15:00,41.4,38.7,30.05,SSW,201,4.0,8.0,90,0.00,,---,0.10,0.00,VWS V14.01,2013-01-27 07:15:00,
2013-01-26 23:18:00,41.4,38.7,30.05,SSW,200,3.0,4.0,90,0.00,,---,0.10,0.00,VWS V14.01,2013-01-27 07:18:00,
2013-01-26 23:20:00,41.4,38.7,30.05,South,180,3.0,7.0,90,0.00,,---,0.10,0.00,VWS V14.01,2013-01-27 07:20:00,
2013-01-26 23:23:00,41.4,38.7,30.05,SSW,211,2.0,3.0,90,0.00,,---,0.10,0.00,VWS V14.01,2013-01-27 07:23:00,
2013-01-26 23:25:00,41.4,38.7,30.05,SSW,213,3.0,4.0,90,0.00,,---,0.10,0.00,VWS V14.01,2013-01-27 07:25:00,
2013-01-26 23:28:00,41.3,38.6,30.06,South,181,3.0,3.0,90,0.00,,---,0.10,0.00,VWS V14.01,2013-01-27 07:28:00,
2013-01-26 23:30:00,41.3,38.6,30.06,South,173,3.0,4.0,90,0.00,,---,0.10,0.00,VWS V14.01,2013-01-27 07:30:00,
2013-01-26 23:33:00,41.3,38.6,30.06,SW,233,1.0,2.0,90,0.00,,---,0.10,0.00,VWS V14.01,2013-01-27 07:33:00,
2013-01-26 23:35:00,41.3,38.6,30.06,SW,233,1.0,3.0,90,0.00,,---,0.10,0.00,VWS V14.01,2013-01-27 07:35:00,
2013-01-26 23:38:00,41.3,38.6,30.06,WSW,258,0.0,3.0,90,0.00,,---,0.10,0.00,VWS V14.01,2013-01-27 07:38:00,
2013-01-26 23:40:00,41.3,38.6,30.06,West,259,3.0,4.0,90,0.00,,---,0.10,0.00,VWS V14.01,2013-01-27 07:40:00,
2013-01-26 23:43:00,41.3,38.6,30.05,SSW,199,0.0,1.0,90,0.00,,---,0.10,0.00,VWS V14.01,2013-01-27 07:43:00,
2013-01-26 23:45:00,41.3,38.6,30.06,SSW,200,1.0,3.0,90,0.00,,---,0.10,0.00,VWS V14.01,2013-01-27 07:45:00,
2013-01-26 23:48:00,41.3,38.6,30.05,SSW,211,1.0,1.0,90,0.00,,---,0.10,0.00,VWS V14.01,2013-01-27 07:48:00,
2013-01-26 23:50:00,41.3,38.6,30.05,SSW,212,0.0,1.0,90,0.00,,---,0.10,0.00,VWS V14.01,2013-01-27 07:50:00,
2013-01-26 23:53:00,41.3,38.6,30.05,SSW,212,0.0,0.0,90,0.00,,---,0.10,0.00,VWS V14.01,2013-01-27 07:53:00,
2013-01-26 23:55:00,41.3,38.6,30.05,SSW,213,0.0,2.0,90,0.00,,---,0.10,0.00,VWS V14.01,2013-01-27 07:55:00,
2013-01-26 23:58:00,41.3,38.6,30.06,SW,221,1.0,2.0,90,0.00,,---,0.00,0.00,VWS V14.01,2013-01-27 07:58:00,